Time,TemperatureF,DewpointF,PressureIn,WindDirection,WindDirectionDegrees,WindSpeedMPH,WindSpeedGustMPH,Humidity,HourlyPrecipIn,Conditions,Clouds,dailyrainin,SoftwareType,DateUTC
2013-02-26 00:00:00,32.8,11.6,29.92,SW,225,1.6,2.5,41,0.00,,,0.00,WUHU216HW,2013-02-26 07:00:00,
2013-02-26 00:02:00,32.8,11.6,29.92,SW,225,1.8,2.2,41,0.00,,,0.00,WUHU216HW,2013-02-26 07:02:00,
2013-02-26 00:04:00,32.8,11.6,29.92,SW,225,1.8,2.2,41,0.00,,,0.00,WUHU216HW,2013-02-26 07:04:00,
2013-02-26 00:05:00,32.8,11.6,29.92,SW,225,1.8,2.2,41,0.00,,,0.00,WUHU216HW,2013-02-26 07:05:00,
2013-02-26 00:07:00,32.8,11.6,29.92,SW,225,1.6,2.2,41,0.00,,,0.00,WUHU216HW,2013-02-26 07:07:00,
2013-02-26 00:08:00,32.8,11.6,29.92,SW,225,1.8,2.2,41,0.00,,,0.00,WUHU216HW,2013-02-26 07:08:00,
2013-02-26 00:09:00,32.8,11.6,29.92,SW,225,1.8,2.2,41,0.00,,,0.00,WUHU216HW,2013-02-26 07:09:00,
2013-02-26 00:10:00,32.8,11.6,29.92,SW,225,1.3,2.0,41,0.00,,,0.00,WUHU216HW,2013-02-26 07:10:00,
2013-02-26 00:12:00,32.8,12.1,29.92,SW,225,1.6,2.0,42,0.00,,,0.00,WUHU216HW,2013-02-26 07:12:00,
2013-02-26 00:13:00,32.8,12.1,29.92,SW,225,1.8,2.0,42,0.00,,,0.00,WUHU216HW,2013-02-26 07:13:00,
2013-02-26 00:14:00,32.6,12.0,29.92,SW,225,1.8,2.0,42,0.00,,,0.00,WUHU216HW,2013-02-26 07:14:00,
2013-02-26 00:15:00,32.4,11.3,29.92,SW,225,1.8,2.0,41,0.00,,,0.00,WUHU216HW,2013-02-26 07:15:00,
2013-02-26 00:17:00,32.4,11.3,29.92,SW,225,1.6,2.0,41,0.00,,,0.00,WUHU216HW,2013-02-26 07:17:00,
2013-02-26 00:18:00,32.2,11.1,29.92,SW,225,1.6,2.0,41,0.00,,,0.00,WUHU216HW,2013-02-26 07:18:00,
2013-02-26 00:19:00,32.2,11.1,29.92,SW,225,1.8,2.0,41,0.00,,,0.00,WUHU216HW,2013-02-26 07:19:00,
2013-02-26 00:20:00,32.0,11.0,29.92,SW,225,1.8,2.0,41,0.00,,,0.00,WUHU216HW,2013-02-26 07:20:00,
2013-02-26 00:22:00,32.0,11.4,29.92,WSW,248,2.0,2.0,42,0.00,,,0.00,WUHU216HW,2013-02-26 07:22:00,
2013-02-26 00:24:00,32.0,11.4,29.92,SW,225,1.6,2.0,42,0.00,,,0.00,WUHU216HW,2013-02-26 07:24:00,
2013-02-26 00:25:00,31.9,11.3,29.92,SW,225,1.8,2.0,42,0.00,,,0.00,WUHU216HW,2013-02-26 07:25:00,
2013-02-26 00:27:00,31.9,11.8,29.92,SW,225,2.0,2.2,43,0.00,,,0.00,WUHU216HW,2013-02-26 07:27:00,
2013-02-26 00:29:00,31.9,11.8,29.92,SW,225,2.2,2.5,43,0.00,,,0.00,WUHU216HW,2013-02-26 07:29:00,
2013-02-26 00:30:00,31.7,11.6,29.92,WSW,248,1.8,2.5,43,0.00,,,0.00,WUHU216HW,2013-02-26 07:30:00,
2013-02-26 00:32:00,31.7,11.6,29.91,WSW,248,1.8,2.5,43,0.00,,,0.00,WUHU216HW,2013-02-26 07:32:00,
2013-02-26 00:34:00,31.7,11.6,29.91,SW,225,2.0,2.9,43,0.00,,,0.00,WUHU216HW,2013-02-26 07:34:00,
2013-02-26 00:35:00,31.7,11.6,29.92,WSW,248,2.5,2.9,43,0.00,,,0.00,WUHU216HW,2013-02-26 07:35:00,
2013-02-26 00:37:00,31.5,11.4,29.92,SW,225,3.4,3.8,43,0.00,,,0.00,WUHU216HW,2013-02-26 07:37:00,
2013-02-26 00:39:00,31.5,11.4,29.92,SW,225,3.1,3.8,43,0.00,,,0.00,WUHU216HW,2013-02-26 07:39:00,
2013-02-26 00:40:00,31.3,11.4,29.92,WSW,248,2.5,3.8,43,0.00,,,0.00,WUHU216HW,2013-02-26 07:40:00,
2013-02-26 00:43:00,31.3,11.4,29.92,SW,225,3.1,3.8,43,0.00,,,0.00,WUHU216HW,2013-02-26 07:43:00,
2013-02-26 00:44:00,31.3,11.4,29.92,SSW,203,2.9,3.8,43,0.00,,,0.00,WUHU216HW,2013-02-26 07:44:00,
2013-02-26 00:45:00,31.3,11.4,29.92,SW,225,2.5,3.8,43,0.00,,,0.00,WUHU216HW,2013-02-26 07:45:00,
2013-02-26 00:46:00,31.3,11.4,29.92,WSW,248,3.4,3.8,43,0.00,,,0.00,WUHU216HW,2013-02-26 07:46:00,
2013-02-26 00:48:00,31.3,11.4,29.92,WSW,248,1.8,3.6,43,0.00,,,0.00,WUHU216HW,2013-02-26 07:48:00,
2013-02-26 00:49:00,31.3,11.4,29.92,WSW,248,2.5,3.6,43,0.00,,,0.00,WUHU216HW,2013-02-26 07:49:00,
2013-02-26 00:50:00,31.3,11.4,29.92,WSW,248,3.4,3.6,43,0.00,,,0.00,WUHU216HW,2013-02-26 07:50:00,
2013-02-26 00:51:00,31.3,11.4,29.92,West,270,4.0,4.0,43,0.00,,,0.00,WUHU216HW,2013-02-26 07:51:00,
2013-02-26 00:53:00,31.3,11.8,29.92,WSW,248,3.8,4.5,44,0.00,,,0.00,WUHU216HW,2013-02-26 07:53:00,
2013-02-26 00:54:00,31.3,11.4,29.92,WSW,248,4.0,4.5,43,0.00,,,0.00,WUHU216HW,2013-02-26 07:54:00,
2013-02-26 00:55:00,31.3,11.4,29.92,SW,225,2.5,4.5,43,0.00,,,0.00,WUHU216HW,2013-02-26 07:55:00,
2013-02-26 00:56:00,31.3,11.4,29.91,WSW,248,2.5,4.5,43,0.00,,,0.00,WUHU216HW,2013-02-26 07:56:00,
2013-02-26 00:58:00,31.3,11.8,29.91,WSW,248,2.7,4.5,44,0.00,,,0.00,WUHU216HW,2013-02-26 07:58:00,
2013-02-26 00:59:00,31.3,11.8,29.91,WSW,248,3.1,4.5,44,0.00,,,0.00,WUHU216HW,2013-02-26 07:59:00,
2013-02-26 01:00:00,31.3,11.8,29.91,West,270,2.5,4.5,44,0.00,,,0.00,WUHU216HW,2013-02-26 08:00:00,
2013-02-26 01:01:00,31.3,11.8,29.91,WSW,248,4.3,4.5,44,0.00,,,0.00,WUHU216HW,2013-02-26 08:01:00,
2013-02-26 01:03:00,31.3,11.8,29.91,WSW,248,2.5,4.3,44,0.00,,,0.00,WUHU216HW,2013-02-26 08:03:00,
2013-02-26 01:04:00,31.3,11.8,29.91,West,270,2.9,4.3,44,0.00,,,0.00,WUHU216HW,2013-02-26 08:04:00,
2013-02-26 01:05:00,31.3,11.8,29.91,West,270,3.4,4.3,44,0.00,,,0.00,WUHU216HW,2013-02-26 08:05:00,
2013-02-26 01:07:00,31.3,11.8,29.91,WSW,248,2.5,4.3,44,0.00,,,0.00,WUHU216HW,2013-02-26 08:07:00,
2013-02-26 01:08:00,31.3,11.8,29.91,WSW,248,2.5,4.3,44,0.00,,,0.00,WUHU216HW,2013-02-26 08:08:00,
2013-02-26 01:09:00,31.3,11.8,29.91,WSW,248,1.8,4.3,44,0.00,,,0.00,WUHU216HW,2013-02-26 08:09:00,
2013-02-26 01:10:00,31.3,11.8,29.91,WSW,248,1.8,4.3,44,0.00,,,0.00,WUHU216HW,2013-02-26 08:10:00,
2013-02-26 01:12:00,31.3,11.8,29.91,WSW,248,1.1,3.8,44,0.00,,,0.00,WUHU216HW,2013-02-26 08:12:00,
2013-02-26 01:13:00,31.3,11.8,29.91,SW,225,1.3,3.8,44,0.00,,,0.00,WUHU216HW,2013-02-26 08:13:00,
2013-02-26 01:15:00,31.3,11.8,29.91,SW,225,1.3,3.8,44,0.00,,,0.00,WUHU216HW,2013-02-26 08:15:00,
2013-02-26 01:17:00,31.1,11.6,29.90,WSW,248,2.2,2.5,44,0.00,,,0.00,WUHU216HW,2013-02-26 08:17:00,
2013-02-26 01:19:00,31.1,11.6,29.90,WSW,248,0.9,2.5,44,0.00,,,0.00,WUHU216HW,2013-02-26 08:19:00,
2013-02-26 01:20:00,31.1,11.2,29.90,SW,225,2.2,2.5,43,0.00,,,0.00,WUHU216HW,2013-02-26 08:20:00,
2013-02-26 01:22:00,31.0,11.5,29.90,WSW,248,2.0,2.5,44,0.00,,,0.00,WUHU216HW,2013-02-26 08:22:00,
2013-02-26 01:24:00,31.0,11.5,29.90,WSW,248,0.4,2.5,44,0.00,,,0.00,WUHU216HW,2013-02-26 08:24:00,
2013-02-26 01:25:00,31.0,11.5,29.90,SW,225,1.8,2.5,44,0.00,,,0.00,WUHU216HW,2013-02-26 08:25:00,
2013-02-26 01:26:00,30.8,11.4,29.89,WSW,248,1.3,2.5,44,0.00,,,0.00,WUHU216HW,2013-02-26 08:26:00,
2013-02-26 01:27:00,30.8,11.4,29.89,WSW,248,1.8,2.5,44,0.00,,,0.00,WUHU216HW,2013-02-26 08:27:00,
2013-02-26 01:29:00,30.8,11.4,29.90,WSW,248,3.6,4.0,44,0.00,,,0.00,WUHU216HW,2013-02-26 08:29:00,
2013-02-26 01:30:00,30.6,11.2,29.89,SW,225,3.4,4.0,44,0.00,,,0.00,WUHU216HW,2013-02-26 08:30:00,
2013-02-26 01:31:00,30.6,11.2,29.89,SW,225,3.8,4.0,44,0.00,,,0.00,WUHU216HW,2013-02-26 08:31:00,
2013-02-26 01:32:00,30.6,11.2,29.90,SW,225,3.4,4.0,44,0.00,,,0.00,WUHU216HW,2013-02-26 08:32:00,
2013-02-26 01:34:00,30.6,11.2,29.89,WSW,248,3.6,4.0,44,0.00,,,0.00,WUHU216HW,2013-02-26 08:34:00,
2013-02-26 01:35:00,30.6,11.2,29.90,SW,225,2.5,4.0,44,0.00,,,0.00,WUHU216HW,2013-02-26 08:35:00,
2013-02-26 01:36:00,30.6,11.2,29.90,WSW,248,2.0,4.0,44,0.00,,,0.00,WUHU216HW,2013-02-26 08:36:00,
2013-02-26 01:37:00,30.6,11.2,29.89,WSW,248,1.6,4.0,44,0.00,,,0.00,WUHU216HW,2013-02-26 08:37:00,
2013-02-26 01:39:00,30.6,11.2,29.89,SW,225,1.1,3.8,44,0.00,,,0.00,WUHU216HW,2013-02-26 08:39:00,
2013-02-26 01:40:00,30.6,11.2,29.89,WSW,248,0.0,3.8,44,0.00,,,0.00,WUHU216HW,2013-02-26 08:40:00,
2013-02-26 01:41:00,30.6,11.2,29.89,WSW,248,0.4,3.6,44,0.00,,,0.00,WUHU216HW,2013-02-26 08:41:00,
2013-02-26 01:42:00,30.6,11.2,29.89,West,270,0.0,3.6,44,0.00,,,0.00,WUHU216HW,2013-02-26 08:42:00,
2013-02-26 01:44:00,30.6,11.2,29.89,WSW,248,2.5,3.6,44,0.00,,,0.00,WUHU216HW,2013-02-26 08:44:00,
2013-02-26 01:45:00,30.6,11.2,29.89,WSW,248,2.2,2.5,44,0.00,,,0.00,WUHU216HW,2013-02-26 08:45:00,
2013-02-26 01:46:00,30.6,11.7,29.89,WSW,248,2.2,2.5,45,0.00,,,0.00,WUHU216HW,2013-02-26 08:46:00,
2013-02-26 01:47:00,30.6,11.7,29.89,WSW,248,3.1,3.4,45,0.00,,,0.00,WUHU216HW,2013-02-26 08:47:00,
2013-02-26 01:49:00,30.6,11.7,29.89,WSW,248,4.3,4.3,45,0.00,,,0.00,WUHU216HW,2013-02-26 08:49:00,
2013-02-26 01:50:00,30.6,12.2,29.89,WSW,248,4.5,4.5,46,0.00,,,0.00,WUHU216HW,2013-02-26 08:50:00,
2013-02-26 01:51:00,30.6,12.2,29.89,WSW,248,4.0,4.5,46,0.00,,,0.00,WUHU216HW,2013-02-26 08:51:00,
2013-02-26 01:53:00,30.6,12.2,29.89,WSW,248,5.1,5.1,46,0.00,,,0.00,WUHU216HW,2013-02-26 08:53:00,
2013-02-26 01:54:00,30.4,12.5,29.89,WSW,248,4.7,5.1,47,0.00,,,0.00,WUHU216HW,2013-02-26 08:54:00,
2013-02-26 01:55:00,30.6,12.7,29.89,WSW,248,5.4,5.4,47,0.00,,,0.00,WUHU216HW,2013-02-26 08:55:00,
2013-02-26 01:56:00,30.6,12.7,29.89,WSW,248,5.1,5.4,47,0.00,,,0.00,WUHU216HW,2013-02-26 08:56:00,
2013-02-26 01:58:00,30.6,12.7,29.89,WSW,248,5.4,5.6,47,0.00,,,0.00,WUHU216HW,2013-02-26 08:58:00,
2013-02-26 01:59:00,30.6,12.7,29.89,WSW,248,4.7,5.6,47,0.00,,,0.00,WUHU216HW,2013-02-26 08:59:00,
2013-02-26 02:00:00,30.6,12.7,29.89,WSW,248,4.7,5.6,47,0.00,,,0.00,WUHU216HW,2013-02-26 09:00:00,
2013-02-26 02:01:00,30.6,12.7,29.89,WSW,248,5.1,5.6,47,0.00,,,0.00,WUHU216HW,2013-02-26 09:01:00,
2013-02-26 02:03:00,30.6,12.7,29.89,WSW,248,5.4,5.6,47,0.00,,,0.00,WUHU216HW,2013-02-26 09:03:00,
2013-02-26 02:04:00,30.6,12.7,29.89,WSW,248,5.4,5.6,47,0.00,,,0.00,WUHU216HW,2013-02-26 09:04:00,
2013-02-26 02:05:00,30.6,13.1,29.89,WSW,248,4.7,5.6,48,0.00,,,0.00,WUHU216HW,2013-02-26 09:05:00,
2013-02-26 02:06:00,30.6,13.1,29.89,WSW,248,4.3,5.6,48,0.00,,,0.00,WUHU216HW,2013-02-26 09:06:00,
2013-02-26 02:08:00,30.6,12.7,29.89,SW,225,5.1,5.6,47,0.00,,,0.00,WUHU216HW,2013-02-26 09:08:00,
2013-02-26 02:09:00,30.6,12.7,29.89,WSW,248,5.6,5.6,47,0.00,,,0.00,WUHU216HW,2013-02-26 09:09:00,
2013-02-26 02:10:00,30.6,12.7,29.89,WSW,248,4.7,5.6,47,0.00,,,0.00,WUHU216HW,2013-02-26 09:10:00,
2013-02-26 02:11:00,30.8,12.9,29.89,WSW,248,4.5,5.6,47,0.00,,,0.00,WUHU216HW,2013-02-26 09:11:00,
2013-02-26 02:13:00,31.0,13.0,29.88,WSW,248,3.6,5.6,47,0.00,,,0.00,WUHU216HW,2013-02-26 09:13:00,
2013-02-26 02:14:00,31.0,13.0,29.88,WSW,248,3.6,5.6,47,0.00,,,0.00,WUHU216HW,2013-02-26 09:14:00,
2013-02-26 02:15:00,31.0,13.0,29.88,WSW,248,3.8,5.6,47,0.00,,,0.00,WUHU216HW,2013-02-26 09:15:00,
2013-02-26 02:16:00,31.0,13.0,29.88,WSW,248,3.6,5.6,47,0.00,,,0.00,WUHU216HW,2013-02-26 09:16:00,
2013-02-26 02:19:00,31.0,13.0,29.88,WSW,248,4.7,5.6,47,0.00,,,0.00,WUHU216HW,2013-02-26 09:19:00,
2013-02-26 02:20:00,31.0,13.5,29.88,WSW,248,4.7,4.9,48,0.00,,,0.00,WUHU216HW,2013-02-26 09:20:00,
2013-02-26 02:21:00,31.0,13.5,29.88,WSW,248,4.7,4.9,48,0.00,,,0.00,WUHU216HW,2013-02-26 09:21:00,
2013-02-26 02:22:00,31.0,13.5,29.88,WSW,248,4.3,4.7,48,0.00,,,0.00,WUHU216HW,2013-02-26 09:22:00,
2013-02-26 02:24:00,30.8,12.9,29.88,WSW,248,2.7,4.7,47,0.00,,,0.00,WUHU216HW,2013-02-26 09:24:00,
2013-02-26 02:25:00,30.6,13.1,29.88,WSW,248,1.8,4.7,48,0.00,,,0.00,WUHU216HW,2013-02-26 09:25:00,
2013-02-26 02:26:00,30.6,13.1,29.88,WSW,248,1.6,4.7,48,0.00,,,0.00,WUHU216HW,2013-02-26 09:26:00,
2013-02-26 02:27:00,30.6,13.1,29.88,SW,225,2.5,4.7,48,0.00,,,0.00,WUHU216HW,2013-02-26 09:27:00,
2013-02-26 02:29:00,30.4,13.1,29.88,WSW,248,1.3,4.7,48,0.00,,,0.00,WUHU216HW,2013-02-26 09:29:00,
2013-02-26 02:30:00,30.4,13.1,29.88,WSW,248,1.1,4.7,48,0.00,,,0.00,WUHU216HW,2013-02-26 09:30:00,
2013-02-26 02:31:00,30.4,13.1,29.88,WSW,248,1.3,4.7,48,0.00,,,0.00,WUHU216HW,2013-02-26 09:31:00,
2013-02-26 02:32:00,30.2,12.9,29.88,SW,225,2.0,4.3,48,0.00,,,0.00,WUHU216HW,2013-02-26 09:32:00,
2013-02-26 02:34:00,30.1,12.7,29.88,SW,225,2.5,3.4,48,0.00,,,0.00,WUHU216HW,2013-02-26 09:34:00,
2013-02-26 02:35:00,30.1,12.7,29.88,SW,225,2.7,3.4,48,0.00,,,0.00,WUHU216HW,2013-02-26 09:35:00,
2013-02-26 02:36:00,30.1,12.7,29.88,SW,225,2.5,3.4,48,0.00,,,0.00,WUHU216HW,2013-02-26 09:36:00,
2013-02-26 02:37:00,29.9,12.5,29.87,WSW,248,2.7,3.4,48,0.00,,,0.00,WUHU216HW,2013-02-26 09:37:00,
2013-02-26 02:39:00,29.9,12.5,29.88,SW,225,3.4,3.4,48,0.00,,,0.00,WUHU216HW,2013-02-26 09:39:00,
2013-02-26 02:40:00,29.9,12.5,29.88,SW,225,2.2,3.4,48,0.00,,,0.00,WUHU216HW,2013-02-26 09:40:00,
2013-02-26 02:41:00,29.9,12.5,29.88,WSW,248,1.3,3.4,48,0.00,,,0.00,WUHU216HW,2013-02-26 09:41:00,
2013-02-26 02:42:00,29.7,12.3,29.88,WSW,248,1.1,3.4,48,0.00,,,0.00,WUHU216HW,2013-02-26 09:42:00,
2013-02-26 02:44:00,29.7,12.3,29.88,SW,225,2.9,3.4,48,0.00,,,0.00,WUHU216HW,2013-02-26 09:44:00,
2013-02-26 02:45:00,29.7,12.9,29.88,SW,225,2.5,3.4,49,0.00,,,0.00,WUHU216HW,2013-02-26 09:45:00,
2013-02-26 02:46:00,29.7,12.9,29.88,WSW,248,3.4,3.4,49,0.00,,,0.00,WUHU216HW,2013-02-26 09:46:00,
2013-02-26 02:48:00,29.7,12.9,29.88,WSW,248,4.0,4.0,49,0.00,,,0.00,WUHU216HW,2013-02-26 09:48:00,
2013-02-26 02:49:00,29.7,12.9,29.88,WSW,248,4.3,4.5,49,0.00,,,0.00,WUHU216HW,2013-02-26 09:49:00,
2013-02-26 02:50:00,29.7,13.4,29.88,WSW,248,4.5,4.5,50,0.00,,,0.00,WUHU216HW,2013-02-26 09:50:00,
2013-02-26 02:51:00,29.7,13.4,29.87,WSW,248,3.4,4.5,50,0.00,,,0.00,WUHU216HW,2013-02-26 09:51:00,
2013-02-26 02:53:00,29.7,13.4,29.87,WSW,248,1.8,4.5,50,0.00,,,0.00,WUHU216HW,2013-02-26 09:53:00,
2013-02-26 02:54:00,29.7,13.4,29.87,SW,225,1.8,4.5,50,0.00,,,0.00,WUHU216HW,2013-02-26 09:54:00,
2013-02-26 02:56:00,29.7,13.4,29.87,WSW,248,1.6,4.5,50,0.00,,,0.00,WUHU216HW,2013-02-26 09:56:00,
2013-02-26 02:58:00,29.7,12.9,29.88,WSW,248,2.5,4.5,49,0.00,,,0.00,WUHU216HW,2013-02-26 09:58:00,
2013-02-26 02:59:00,29.7,13.4,29.88,WSW,248,3.6,4.5,50,0.00,,,0.00,WUHU216HW,2013-02-26 09:59:00,
2013-02-26 03:01:00,29.7,13.4,29.88,SW,225,2.7,4.5,50,0.00,,,0.00,WUHU216HW,2013-02-26 10:01:00,
2013-02-26 03:02:00,29.7,13.4,29.88,WSW,248,3.1,3.8,50,0.00,,,0.00,WUHU216HW,2013-02-26 10:02:00,
2013-02-26 03:03:00,29.7,13.4,29.87,WSW,248,4.0,4.0,50,0.00,,,0.00,WUHU216HW,2013-02-26 10:03:00,
2013-02-26 03:05:00,29.7,13.4,29.87,WSW,248,4.5,4.5,50,0.00,,,0.00,WUHU216HW,2013-02-26 10:05:00,
2013-02-26 03:06:00,29.7,13.8,29.87,WSW,248,4.5,4.7,51,0.00,,,0.00,WUHU216HW,2013-02-26 10:06:00,
2013-02-26 03:07:00,29.7,13.8,29.87,WSW,248,4.7,4.7,51,0.00,,,0.00,WUHU216HW,2013-02-26 10:07:00,
2013-02-26 03:09:00,29.7,13.8,29.87,WSW,248,5.4,5.4,51,0.00,,,0.00,WUHU216HW,2013-02-26 10:09:00,
2013-02-26 03:10:00,29.7,13.8,29.87,WSW,248,5.6,5.8,51,0.00,,,0.00,WUHU216HW,2013-02-26 10:10:00,
2013-02-26 03:11:00,29.7,14.2,29.87,WSW,248,4.7,5.8,52,0.00,,,0.00,WUHU216HW,2013-02-26 10:11:00,
2013-02-26 03:13:00,29.7,14.2,29.87,West,270,4.7,5.8,52,0.00,,,0.00,WUHU216HW,2013-02-26 10:13:00,
2013-02-26 03:14:00,29.7,14.2,29.87,WSW,248,4.7,5.8,52,0.00,,,0.00,WUHU216HW,2013-02-26 10:14:00,
2013-02-26 03:15:00,29.7,14.2,29.87,WSW,248,5.1,5.8,52,0.00,,,0.00,WUHU216HW,2013-02-26 10:15:00,
2013-02-26 03:16:00,29.9,14.4,29.87,WSW,248,4.9,5.8,52,0.00,,,0.00,WUHU216HW,2013-02-26 10:16:00,
2013-02-26 03:18:00,29.9,14.4,29.87,WSW,248,5.1,5.8,52,0.00,,,0.00,WUHU216HW,2013-02-26 10:18:00,
2013-02-26 03:19:00,29.9,14.4,29.87,WSW,248,5.1,5.8,52,0.00,,,0.00,WUHU216HW,2013-02-26 10:19:00,
2013-02-26 03:20:00,29.9,14.4,29.87,WSW,248,4.5,5.6,52,0.00,,,0.00,WUHU216HW,2013-02-26 10:20:00,
2013-02-26 03:21:00,29.9,14.4,29.87,WSW,248,4.0,5.6,52,0.00,,,0.00,WUHU216HW,2013-02-26 10:21:00,
2013-02-26 03:23:00,29.9,14.4,29.87,WSW,248,3.8,5.6,52,0.00,,,0.00,WUHU216HW,2013-02-26 10:23:00,
2013-02-26 03:24:00,29.9,14.4,29.87,West,270,4.0,5.6,52,0.00,,,0.00,WUHU216HW,2013-02-26 10:24:00,
2013-02-26 03:25:00,29.9,14.4,29.87,WSW,248,4.7,5.6,52,0.00,,,0.00,WUHU216HW,2013-02-26 10:25:00,
2013-02-26 03:27:00,29.9,14.4,29.87,WSW,248,4.7,5.6,52,0.00,,,0.00,WUHU216HW,2013-02-26 10:27:00,
2013-02-26 03:28:00,29.9,14.4,29.87,WSW,248,4.9,5.1,52,0.00,,,0.00,WUHU216HW,2013-02-26 10:28:00,
2013-02-26 03:29:00,29.9,14.4,29.87,WSW,248,4.0,5.1,52,0.00,,,0.00,WUHU216HW,2013-02-26 10:29:00,
2013-02-26 03:31:00,29.9,14.4,29.87,West,270,5.8,5.8,52,0.00,,,0.00,WUHU216HW,2013-02-26 10:31:00,
2013-02-26 03:32:00,30.1,14.5,29.87,WSW,248,4.9,5.8,52,0.00,,,0.00,WUHU216HW,2013-02-26 10:32:00,
2013-02-26 03:33:00,30.1,14.5,29.87,WSW,248,3.8,5.8,52,0.00,,,0.00,WUHU216HW,2013-02-26 10:33:00,
2013-02-26 03:34:00,30.2,14.7,29.87,WSW,248,4.7,5.8,52,0.00,,,0.00,WUHU216HW,2013-02-26 10:34:00,
2013-02-26 03:36:00,30.4,14.9,29.87,WSW,248,5.4,5.8,52,0.00,,,0.00,WUHU216HW,2013-02-26 10:36:00,
2013-02-26 03:37:00,30.6,15.0,29.87,WSW,248,3.8,5.8,52,0.00,,,0.00,WUHU216HW,2013-02-26 10:37:00,
2013-02-26 03:38:00,30.6,15.0,29.87,WSW,248,4.9,5.8,52,0.00,,,0.00,WUHU216HW,2013-02-26 10:38:00,
2013-02-26 03:40:00,30.8,14.8,29.87,WSW,248,4.7,5.8,51,0.00,,,0.00,WUHU216HW,2013-02-26 10:40:00,
2013-02-26 03:41:00,31.0,15.0,29.87,WSW,248,5.1,5.4,51,0.00,,,0.00,WUHU216HW,2013-02-26 10:41:00,
2013-02-26 03:42:00,31.0,15.0,29.87,WSW,248,4.7,5.4,51,0.00,,,0.00,WUHU216HW,2013-02-26 10:42:00,
2013-02-26 03:43:00,31.1,15.1,29.86,WSW,248,3.6,5.4,51,0.00,,,0.00,WUHU216HW,2013-02-26 10:43:00,
2013-02-26 03:45:00,31.3,14.9,29.86,WSW,248,3.4,5.4,50,0.00,,,0.00,WUHU216HW,2013-02-26 10:45:00,
2013-02-26 03:46:00,31.3,14.9,29.86,SW,225,4.3,5.4,50,0.00,,,0.00,WUHU216HW,2013-02-26 10:46:00,
2013-02-26 03:47:00,31.3,14.9,29.86,WSW,248,2.5,5.4,50,0.00,,,0.00,WUHU216HW,2013-02-26 10:47:00,
2013-02-26 03:48:00,31.1,14.7,29.87,WSW,248,2.9,5.4,50,0.00,,,0.00,WUHU216HW,2013-02-26 10:48:00,
2013-02-26 03:50:00,31.1,14.7,29.87,WSW,248,2.5,5.4,50,0.00,,,0.00,WUHU216HW,2013-02-26 10:50:00,
2013-02-26 03:51:00,31.0,14.5,29.86,SW,225,2.5,4.7,50,0.00,,,0.00,WUHU216HW,2013-02-26 10:51:00,
2013-02-26 03:52:00,31.0,14.5,29.86,WSW,248,2.0,4.7,50,0.00,,,0.00,WUHU216HW,2013-02-26 10:52:00,
2013-02-26 03:54:00,30.8,14.3,29.86,WSW,248,3.1,4.3,50,0.00,,,0.00,WUHU216HW,2013-02-26 10:54:00,
2013-02-26 03:55:00,30.6,14.2,29.86,WSW,248,1.3,4.3,50,0.00,,,0.00,WUHU216HW,2013-02-26 10:55:00,
2013-02-26 03:56:00,30.6,14.2,29.86,WSW,248,1.3,4.3,50,0.00,,,0.00,WUHU216HW,2013-02-26 10:56:00,
2013-02-26 03:57:00,30.6,14.2,29.86,WSW,248,1.1,3.4,50,0.00,,,0.00,WUHU216HW,2013-02-26 10:57:00,
2013-02-26 03:59:00,30.4,14.1,29.86,WSW,248,1.8,3.4,50,0.00,,,0.00,WUHU216HW,2013-02-26 10:59:00,
2013-02-26 04:00:00,30.2,13.9,29.86,SW,225,2.2,3.4,50,0.00,,,0.00,WUHU216HW,2013-02-26 11:00:00,
2013-02-26 04:02:00,30.2,13.9,29.86,WSW,248,1.1,3.4,50,0.00,,,0.00,WUHU216HW,2013-02-26 11:02:00,
2013-02-26 04:04:00,30.1,14.1,29.86,WSW,248,2.5,2.5,51,0.00,,,0.00,WUHU216HW,2013-02-26 11:04:00,
2013-02-26 04:05:00,29.9,14.0,29.86,WSW,248,2.2,2.5,51,0.00,,,0.00,WUHU216HW,2013-02-26 11:05:00,
2013-02-26 04:07:00,29.9,14.4,29.87,WSW,248,3.4,3.8,52,0.00,,,0.00,WUHU216HW,2013-02-26 11:07:00,
2013-02-26 04:09:00,29.9,14.4,29.87,WSW,248,3.1,3.8,52,0.00,,,0.00,WUHU216HW,2013-02-26 11:09:00,
2013-02-26 04:10:00,29.7,14.2,29.87,West,270,3.8,3.8,52,0.00,,,0.00,WUHU216HW,2013-02-26 11:10:00,
2013-02-26 04:12:00,29.5,14.0,29.87,WSW,248,2.5,3.8,52,0.00,,,0.00,WUHU216HW,2013-02-26 11:12:00,
2013-02-26 04:14:00,29.5,14.0,29.87,WSW,248,1.6,3.8,52,0.00,,,0.00,WUHU216HW,2013-02-26 11:14:00,
2013-02-26 04:15:00,29.5,14.0,29.87,SW,225,2.0,3.8,52,0.00,,,0.00,WUHU216HW,2013-02-26 11:15:00,
2013-02-26 04:17:00,29.3,13.9,29.87,WSW,248,2.5,3.8,52,0.00,,,0.00,WUHU216HW,2013-02-26 11:17:00,
2013-02-26 04:18:00,29.3,13.9,29.87,SW,225,1.8,3.8,52,0.00,,,0.00,WUHU216HW,2013-02-26 11:18:00,
2013-02-26 04:19:00,29.3,13.9,29.87,WSW,248,2.0,3.8,52,0.00,,,0.00,WUHU216HW,2013-02-26 11:19:00,
2013-02-26 04:21:00,29.2,13.7,29.87,SW,225,2.2,3.8,52,0.00,,,0.00,WUHU216HW,2013-02-26 11:21:00,
2013-02-26 04:22:00,29.2,13.7,29.87,WSW,248,4.0,4.0,52,0.00,,,0.00,WUHU216HW,2013-02-26 11:22:00,
2013-02-26 04:23:00,29.2,13.7,29.87,WSW,248,4.0,4.0,52,0.00,,,0.00,WUHU216HW,2013-02-26 11:23:00,
2013-02-26 04:24:00,29.2,13.7,29.87,SSW,203,4.5,4.5,52,0.00,,,0.00,WUHU216HW,2013-02-26 11:24:00,
2013-02-26 04:26:00,29.2,13.7,29.87,WSW,248,3.4,4.5,52,0.00,,,0.00,WUHU216HW,2013-02-26 11:26:00,
2013-02-26 04:28:00,29.2,13.7,29.87,WSW,248,3.4,4.5,52,0.00,,,0.00,WUHU216HW,2013-02-26 11:28:00,
2013-02-26 04:29:00,29.2,13.7,29.87,WSW,248,2.9,4.5,52,0.00,,,0.00,WUHU216HW,2013-02-26 11:29:00,
2013-02-26 04:31:00,29.2,13.7,29.87,WSW,248,1.6,4.5,52,0.00,,,0.00,WUHU216HW,2013-02-26 11:31:00,
2013-02-26 04:33:00,29.2,13.7,29.87,WSW,248,2.2,4.5,52,0.00,,,0.00,WUHU216HW,2013-02-26 11:33:00,
2013-02-26 04:34:00,29.2,14.1,29.87,WSW,248,3.8,4.5,53,0.00,,,0.00,WUHU216HW,2013-02-26 11:34:00,
2013-02-26 04:36:00,29.2,14.1,29.87,SW,225,1.3,4.3,53,0.00,,,0.00,WUHU216HW,2013-02-26 11:36:00,
2013-02-26 04:38:00,29.2,14.1,29.87,WSW,248,1.6,4.3,53,0.00,,,0.00,WUHU216HW,2013-02-26 11:38:00,
2013-02-26 04:39:00,29.2,14.1,29.87,WSW,248,1.3,4.3,53,0.00,,,0.00,WUHU216HW,2013-02-26 11:39:00,
2013-02-26 04:41:00,29.2,14.1,29.87,WSW,248,1.8,4.3,53,0.00,,,0.00,WUHU216HW,2013-02-26 11:41:00,
2013-02-26 04:43:00,29.2,14.1,29.87,WSW,248,2.0,4.3,53,0.00,,,0.00,WUHU216HW,2013-02-26 11:43:00,
2013-02-26 04:44:00,29.2,14.1,29.87,WSW,248,1.8,2.9,53,0.00,,,0.00,WUHU216HW,2013-02-26 11:44:00,
2013-02-26 04:46:00,29.2,14.1,29.87,SW,225,3.4,3.6,53,0.00,,,0.00,WUHU216HW,2013-02-26 11:46:00,
2013-02-26 04:48:00,29.2,14.1,29.87,WSW,248,2.7,3.6,53,0.00,,,0.00,WUHU216HW,2013-02-26 11:48:00,
2013-02-26 04:49:00,29.2,14.1,29.87,WSW,248,1.8,3.6,53,0.00,,,0.00,WUHU216HW,2013-02-26 11:49:00,
2013-02-26 04:51:00,29.0,14.0,29.87,SW,225,1.6,3.6,53,0.00,,,0.00,WUHU216HW,2013-02-26 11:51:00,
2013-02-26 04:53:00,29.0,14.0,29.87,SW,225,1.8,3.6,53,0.00,,,0.00,WUHU216HW,2013-02-26 11:53:00,
2013-02-26 04:54:00,29.0,14.0,29.87,SW,225,1.3,3.6,53,0.00,,,0.00,WUHU216HW,2013-02-26 11:54:00,
2013-02-26 04:57:00,28.8,13.8,29.87,SW,225,1.8,2.9,53,0.00,,,0.00,WUHU216HW,2013-02-26 11:57:00,
2013-02-26 04:58:00,28.8,14.2,29.87,WSW,248,1.6,2.5,54,0.00,,,0.00,WUHU216HW,2013-02-26 11:58:00,
2013-02-26 04:59:00,28.6,14.0,29.87,WSW,248,1.6,2.5,54,0.00,,,0.00,WUHU216HW,2013-02-26 11:59:00,
2013-02-26 05:02:00,28.4,13.5,29.87,SW,225,2.0,2.9,53,0.00,,,0.00,WUHU216HW,2013-02-26 12:02:00,
2013-02-26 05:03:00,28.4,13.9,29.87,SW,225,2.0,2.9,54,0.00,,,0.00,WUHU216HW,2013-02-26 12:03:00,
2013-02-26 05:04:00,28.4,13.9,29.87,WSW,248,2.0,2.9,54,0.00,,,0.00,WUHU216HW,2013-02-26 12:04:00,
2013-02-26 05:07:00,28.3,13.7,29.87,SW,225,1.3,2.9,54,0.00,,,0.00,WUHU216HW,2013-02-26 12:07:00,
2013-02-26 05:08:00,28.3,13.7,29.87,SW,225,2.0,2.9,54,0.00,,,0.00,WUHU216HW,2013-02-26 12:08:00,
2013-02-26 05:09:00,28.3,13.7,29.87,SW,225,2.5,2.9,54,0.00,,,0.00,WUHU216HW,2013-02-26 12:09:00,
2013-02-26 05:12:00,28.1,13.5,29.86,SW,225,0.9,3.1,54,0.00,,,0.00,WUHU216HW,2013-02-26 12:12:00,
2013-02-26 05:13:00,28.1,13.5,29.87,SW,225,1.1,3.1,54,0.00,,,0.00,WUHU216HW,2013-02-26 12:13:00,
2013-02-26 05:14:00,28.1,13.5,29.87,SW,225,1.1,3.1,54,0.00,,,0.00,WUHU216HW,2013-02-26 12:14:00,
2013-02-26 05:15:00,28.1,14.0,29.86,WSW,248,1.3,3.1,55,0.00,,,0.00,WUHU216HW,2013-02-26 12:15:00,
2013-02-26 05:17:00,27.9,13.8,29.87,SW,225,1.3,3.1,55,0.00,,,0.00,WUHU216HW,2013-02-26 12:17:00,
2013-02-26 05:18:00,27.9,13.8,29.86,SW,225,1.8,3.1,55,0.00,,,0.00,WUHU216HW,2013-02-26 12:18:00,
2013-02-26 05:19:00,27.9,13.8,29.86,SW,225,1.8,3.1,55,0.00,,,0.00,WUHU216HW,2013-02-26 12:19:00,
2013-02-26 05:20:00,27.9,13.8,29.86,SW,225,1.8,2.5,55,0.00,,,0.00,WUHU216HW,2013-02-26 12:20:00,
2013-02-26 05:22:00,27.7,13.6,29.86,WSW,248,1.1,2.0,55,0.00,,,0.00,WUHU216HW,2013-02-26 12:22:00,
2013-02-26 05:24:00,27.7,14.1,29.86,WSW,248,1.1,2.0,56,0.00,,,0.00,WUHU216HW,2013-02-26 12:24:00,
2013-02-26 05:26:00,27.7,14.1,29.86,SW,225,2.0,2.2,56,0.00,,,0.00,WUHU216HW,2013-02-26 12:26:00,
2013-02-26 05:27:00,27.7,14.1,29.86,SW,225,2.7,2.7,56,0.00,,,0.00,WUHU216HW,2013-02-26 12:27:00,
2013-02-26 05:29:00,27.7,14.1,29.86,SW,225,2.7,3.8,56,0.00,,,0.00,WUHU216HW,2013-02-26 12:29:00,
2013-02-26 05:31:00,27.7,14.1,29.86,SW,225,3.1,3.8,56,0.00,,,0.00,WUHU216HW,2013-02-26 12:31:00,
2013-02-26 05:32:00,27.7,14.1,29.86,SW,225,1.3,3.8,56,0.00,,,0.00,WUHU216HW,2013-02-26 12:32:00,
2013-02-26 05:34:00,27.7,14.1,29.86,SW,225,1.8,3.8,56,0.00,,,0.00,WUHU216HW,2013-02-26 12:34:00,
2013-02-26 05:36:00,27.7,14.1,29.86,SW,225,2.0,3.8,56,0.00,,,0.00,WUHU216HW,2013-02-26 12:36:00,
2013-02-26 05:38:00,27.7,14.1,29.86,SW,225,2.0,3.8,56,0.00,,,0.00,WUHU216HW,2013-02-26 12:38:00,
2013-02-26 05:39:00,27.7,14.1,29.86,SW,225,2.0,3.6,56,0.00,,,0.00,WUHU216HW,2013-02-26 12:39:00,
2013-02-26 05:41:00,27.5,13.4,29.87,WSW,248,2.5,2.5,55,0.00,,,0.00,WUHU216HW,2013-02-26 12:41:00,
2013-02-26 05:43:00,27.5,13.4,29.86,SW,225,2.2,2.9,55,0.00,,,0.00,WUHU216HW,2013-02-26 12:43:00,
2013-02-26 05:44:00,27.5,13.4,29.86,SW,225,3.4,3.4,55,0.00,,,0.00,WUHU216HW,2013-02-26 12:44:00,
2013-02-26 05:46:00,27.7,13.6,29.86,SW,225,3.8,4.3,55,0.00,,,0.00,WUHU216HW,2013-02-26 12:46:00,
2013-02-26 05:48:00,27.5,13.4,29.86,SW,225,3.1,4.3,55,0.00,,,0.00,WUHU216HW,2013-02-26 12:48:00,
2013-02-26 05:49:00,27.7,13.6,29.86,SW,225,2.5,4.3,55,0.00,,,0.00,WUHU216HW,2013-02-26 12:49:00,
2013-02-26 05:50:00,27.5,13.4,29.86,SW,225,2.5,4.3,55,0.00,,,0.00,WUHU216HW,2013-02-26 12:50:00,
2013-02-26 05:51:00,27.7,13.6,29.86,SW,225,2.7,4.3,55,0.00,,,0.00,WUHU216HW,2013-02-26 12:51:00,
2013-02-26 05:53:00,27.7,13.6,29.86,WSW,248,2.2,4.3,55,0.00,,,0.00,WUHU216HW,2013-02-26 12:53:00,
2013-02-26 05:54:00,27.7,13.6,29.86,WSW,248,1.8,4.3,55,0.00,,,0.00,WUHU216HW,2013-02-26 12:54:00,
2013-02-26 05:55:00,27.7,13.6,29.86,WSW,248,1.6,4.3,55,0.00,,,0.00,WUHU216HW,2013-02-26 12:55:00,
2013-02-26 05:56:00,27.7,13.6,29.86,SW,225,1.3,4.0,55,0.00,,,0.00,WUHU216HW,2013-02-26 12:56:00,
2013-02-26 05:58:00,27.7,13.6,29.86,WSW,248,1.8,3.4,55,0.00,,,0.00,WUHU216HW,2013-02-26 12:58:00,
2013-02-26 05:59:00,27.9,13.8,29.86,SW,225,1.8,3.4,55,0.00,,,0.00,WUHU216HW,2013-02-26 12:59:00,
2013-02-26 06:00:00,27.9,13.8,29.86,SW,225,2.5,3.1,55,0.00,,,0.00,WUHU216HW,2013-02-26 13:00:00,
2013-02-26 06:01:00,27.9,13.8,29.86,SW,225,3.4,3.6,55,0.00,,,0.00,WUHU216HW,2013-02-26 13:01:00,
2013-02-26 06:03:00,27.9,13.3,29.86,SW,225,2.5,3.6,54,0.00,,,0.00,WUHU216HW,2013-02-26 13:03:00,
2013-02-26 06:04:00,27.9,13.3,29.86,SW,225,1.8,3.6,54,0.00,,,0.00,WUHU216HW,2013-02-26 13:04:00,
2013-02-26 06:05:00,27.7,13.1,29.86,WSW,248,2.0,3.6,54,0.00,,,0.00,WUHU216HW,2013-02-26 13:05:00,
2013-02-26 06:06:00,27.7,13.1,29.86,SW,225,1.6,3.6,54,0.00,,,0.00,WUHU216HW,2013-02-26 13:06:00,
2013-02-26 06:08:00,27.7,13.1,29.86,SW,225,1.8,3.6,54,0.00,,,0.00,WUHU216HW,2013-02-26 13:08:00,
2013-02-26 06:09:00,27.7,13.1,29.86,SW,225,2.2,3.6,54,0.00,,,0.00,WUHU216HW,2013-02-26 13:09:00,
2013-02-26 06:10:00,27.7,13.1,29.86,WSW,248,2.5,3.6,54,0.00,,,0.00,WUHU216HW,2013-02-26 13:10:00,
2013-02-26 06:11:00,27.7,13.1,29.86,WSW,248,2.5,3.4,54,0.00,,,0.00,WUHU216HW,2013-02-26 13:11:00,
2013-02-26 06:13:00,27.7,13.6,29.86,WSW,248,1.1,3.1,55,0.00,,,0.00,WUHU216HW,2013-02-26 13:13:00,
2013-02-26 06:14:00,27.7,13.6,29.86,WSW,248,1.6,3.1,55,0.00,,,0.00,WUHU216HW,2013-02-26 13:14:00,
2013-02-26 06:16:00,27.7,13.6,29.86,SW,225,2.0,2.7,55,0.00,,,0.00,WUHU216HW,2013-02-26 13:16:00,
2013-02-26 06:18:00,27.7,13.6,29.85,SW,225,2.5,2.7,55,0.00,,,0.00,WUHU216HW,2013-02-26 13:18:00,
2013-02-26 06:19:00,27.7,13.6,29.86,WSW,248,1.8,2.5,55,0.00,,,0.00,WUHU216HW,2013-02-26 13:19:00,
2013-02-26 06:21:00,27.7,13.6,29.86,SW,225,2.7,2.7,55,0.00,,,0.00,WUHU216HW,2013-02-26 13:21:00,
2013-02-26 06:24:00,27.7,13.6,29.86,SW,225,2.2,2.7,55,0.00,,,0.00,WUHU216HW,2013-02-26 13:24:00,
2013-02-26 06:26:00,27.7,13.6,29.86,WSW,248,1.8,2.7,55,0.00,,,0.00,WUHU216HW,2013-02-26 13:26:00,
2013-02-26 06:29:00,27.7,13.6,29.86,WSW,248,1.1,2.7,55,0.00,,,0.00,WUHU216HW,2013-02-26 13:29:00,
2013-02-26 06:31:00,27.5,13.4,29.86,WSW,248,2.5,2.7,55,0.00,,,0.00,WUHU216HW,2013-02-26 13:31:00,
2013-02-26 06:34:00,27.5,13.4,29.86,SW,225,2.5,2.7,55,0.00,,,0.00,WUHU216HW,2013-02-26 13:34:00,
2013-02-26 06:35:00,27.5,13.4,29.86,SW,225,2.2,3.4,55,0.00,,,0.00,WUHU216HW,2013-02-26 13:35:00,
2013-02-26 06:36:00,27.5,13.4,29.86,SW,225,2.5,3.4,55,0.00,,,0.00,WUHU216HW,2013-02-26 13:36:00,
2013-02-26 06:37:00,27.5,13.4,29.86,SW,225,2.0,3.4,55,0.00,,,0.00,WUHU216HW,2013-02-26 13:37:00,
2013-02-26 06:39:00,27.4,13.2,29.86,SW,225,1.8,3.4,55,0.00,,,0.00,WUHU216HW,2013-02-26 13:39:00,
2013-02-26 06:40:00,27.4,13.2,29.86,SW,225,2.0,3.4,55,0.00,,,0.00,WUHU216HW,2013-02-26 13:40:00,
2013-02-26 06:42:00,27.4,13.2,29.86,SW,225,2.2,3.4,55,0.00,,,0.00,WUHU216HW,2013-02-26 13:42:00,
2013-02-26 06:44:00,27.2,13.1,29.86,WSW,248,2.5,3.4,55,0.00,,,0.00,WUHU216HW,2013-02-26 13:44:00,
2013-02-26 06:45:00,27.2,13.1,29.86,SW,225,2.5,3.1,55,0.00,,,0.00,WUHU216HW,2013-02-26 13:45:00,
2013-02-26 06:47:00,27.0,12.9,29.86,WSW,248,1.8,3.1,55,0.00,,,0.00,WUHU216HW,2013-02-26 13:47:00,
2013-02-26 06:48:00,27.0,12.9,29.86,SW,225,1.8,3.1,55,0.00,,,0.00,WUHU216HW,2013-02-26 13:48:00,
2013-02-26 06:49:00,27.0,12.9,29.86,WSW,248,2.0,3.1,55,0.00,,,0.00,WUHU216HW,2013-02-26 13:49:00,
2013-02-26 06:50:00,27.0,12.9,29.86,WSW,248,2.2,3.1,55,0.00,,,0.00,WUHU216HW,2013-02-26 13:50:00,
2013-02-26 06:52:00,27.0,12.9,29.86,SW,225,2.5,3.1,55,0.00,,,0.00,WUHU216HW,2013-02-26 13:52:00,
2013-02-26 06:53:00,27.0,12.9,29.86,SW,225,1.8,3.1,55,0.00,,,0.00,WUHU216HW,2013-02-26 13:53:00,
2013-02-26 06:55:00,27.0,12.9,29.86,SW,225,2.5,2.9,55,0.00,,,0.00,WUHU216HW,2013-02-26 13:55:00,
2013-02-26 06:57:00,27.0,12.9,29.87,SW,225,2.2,3.4,55,0.00,,,0.00,WUHU216HW,2013-02-26 13:57:00,
2013-02-26 06:58:00,27.0,12.9,29.86,SW,225,1.8,3.4,55,0.00,,,0.00,WUHU216HW,2013-02-26 13:58:00,
2013-02-26 07:00:00,27.0,13.3,29.86,SW,225,1.6,3.4,56,0.00,,,0.00,WUHU216HW,2013-02-26 14:00:00,
2013-02-26 07:02:00,27.0,13.3,29.86,SW,225,1.8,3.4,56,0.00,,,0.00,WUHU216HW,2013-02-26 14:02:00,
2013-02-26 07:04:00,27.0,13.7,29.86,SW,225,1.3,3.4,57,0.00,,,0.00,WUHU216HW,2013-02-26 14:04:00,
2013-02-26 07:05:00,27.2,13.9,29.86,WSW,248,1.8,3.4,57,0.00,,,0.00,WUHU216HW,2013-02-26 14:05:00,
2013-02-26 07:07:00,27.4,14.0,29.86,SW,225,2.5,2.5,57,0.00,,,0.00,WUHU216HW,2013-02-26 14:07:00,
2013-02-26 07:09:00,27.5,14.2,29.86,SW,225,1.3,2.5,57,0.00,,,0.00,WUHU216HW,2013-02-26 14:09:00,
2013-02-26 07:10:00,27.5,14.2,29.86,SW,225,1.6,2.5,57,0.00,,,0.00,WUHU216HW,2013-02-26 14:10:00,
2013-02-26 07:11:00,27.5,14.2,29.86,SW,225,1.6,2.5,57,0.00,,,0.00,WUHU216HW,2013-02-26 14:11:00,
2013-02-26 07:12:00,27.7,14.4,29.86,SW,225,1.3,2.5,57,0.00,,,0.00,WUHU216HW,2013-02-26 14:12:00,
2013-02-26 07:14:00,27.7,14.9,29.86,SW,225,1.6,2.5,58,0.00,,,0.00,WUHU216HW,2013-02-26 14:14:00,
2013-02-26 07:16:00,27.9,15.0,29.86,SW,225,1.6,2.5,58,0.00,,,0.00,WUHU216HW,2013-02-26 14:16:00,
2013-02-26 07:17:00,27.9,15.0,29.86,SW,225,1.3,2.5,58,0.00,,,0.00,WUHU216HW,2013-02-26 14:17:00,
2013-02-26 07:19:00,28.1,15.2,29.86,SW,225,1.8,1.8,58,0.00,,,0.00,WUHU216HW,2013-02-26 14:19:00,
2013-02-26 07:21:00,28.4,15.6,29.86,SW,225,1.6,1.8,58,0.00,,,0.00,WUHU216HW,2013-02-26 14:21:00,
2013-02-26 07:22:00,28.4,15.6,29.86,SSW,203,2.0,2.0,58,0.00,,,0.00,WUHU216HW,2013-02-26 14:22:00,
2013-02-26 07:24:00,28.6,15.3,29.86,SSW,203,2.0,2.2,57,0.00,,,0.00,WUHU216HW,2013-02-26 14:24:00,
2013-02-26 07:26:00,29.0,16.0,29.86,SSW,203,1.8,2.2,58,0.00,,,0.00,WUHU216HW,2013-02-26 14:26:00,
2013-02-26 07:27:00,29.0,16.0,29.86,SSW,203,2.2,2.2,58,0.00,,,0.00,WUHU216HW,2013-02-26 14:27:00,
2013-02-26 07:30:00,29.5,16.6,29.86,SSW,203,2.5,3.4,58,0.00,,,0.00,WUHU216HW,2013-02-26 14:30:00,
2013-02-26 07:31:00,29.7,16.7,29.86,SSW,203,2.0,3.4,58,0.00,,,0.00,WUHU216HW,2013-02-26 14:31:00,
2013-02-26 07:32:00,29.7,16.7,29.86,SSW,203,1.6,3.4,58,0.00,,,0.00,WUHU216HW,2013-02-26 14:32:00,
2013-02-26 07:35:00,30.2,17.2,29.86,SSW,203,1.1,3.4,58,0.00,,,0.00,WUHU216HW,2013-02-26 14:35:00,
2013-02-26 07:36:00,30.6,17.1,29.86,SW,225,1.3,3.4,57,0.00,,,0.00,WUHU216HW,2013-02-26 14:36:00,
2013-02-26 07:37:00,30.8,17.3,29.86,SSW,203,1.1,3.4,57,0.00,,,0.00,WUHU216HW,2013-02-26 14:37:00,
2013-02-26 07:40:00,31.3,17.4,29.86,SSW,203,1.1,3.1,56,0.00,,,0.00,WUHU216HW,2013-02-26 14:40:00,
2013-02-26 07:41:00,31.7,17.7,29.86,SSW,203,2.0,2.0,56,0.00,,,0.00,WUHU216HW,2013-02-26 14:41:00,
2013-02-26 07:42:00,31.9,17.9,29.86,SSW,203,2.0,2.2,56,0.00,,,0.00,WUHU216HW,2013-02-26 14:42:00,
2013-02-26 07:45:00,32.4,18.4,29.87,South,180,1.8,2.2,56,0.00,,,0.00,WUHU216HW,2013-02-26 14:45:00,
2013-02-26 07:46:00,32.6,18.5,29.87,SSW,203,1.3,2.2,56,0.00,,,0.00,WUHU216HW,2013-02-26 14:46:00,
2013-02-26 07:47:00,32.8,18.7,29.87,South,180,1.6,2.2,56,0.00,,,0.00,WUHU216HW,2013-02-26 14:47:00,
2013-02-26 07:50:00,33.1,19.1,29.87,SSW,203,1.1,2.2,56,0.00,,,0.00,WUHU216HW,2013-02-26 14:50:00,
2013-02-26 07:51:00,33.5,18.9,29.87,SSW,203,0.2,2.2,55,0.00,,,0.00,WUHU216HW,2013-02-26 14:51:00,
2013-02-26 07:52:00,33.7,19.1,29.87,SW,225,0.4,2.2,55,0.00,,,0.00,WUHU216HW,2013-02-26 14:52:00,
2013-02-26 07:55:00,34.4,19.4,29.87,SW,225,0.4,1.8,54,0.00,,,0.00,WUHU216HW,2013-02-26 14:55:00,
2013-02-26 07:57:00,34.6,19.5,29.87,WSW,248,0.0,1.8,54,0.00,,,0.00,WUHU216HW,2013-02-26 14:57:00,
2013-02-26 07:58:00,34.9,19.4,29.87,WSW,248,0.0,1.8,53,0.00,,,0.00,WUHU216HW,2013-02-26 14:58:00,
2013-02-26 08:00:00,35.5,19.6,29.87,WSW,248,1.1,1.1,52,0.00,,,0.00,WUHU216HW,2013-02-26 15:00:00,
2013-02-26 08:02:00,35.8,19.5,29.87,WSW,248,1.1,1.3,51,0.00,,,0.00,WUHU216HW,2013-02-26 15:02:00,
2013-02-26 08:03:00,35.8,19.5,29.87,West,270,1.1,1.3,51,0.00,,,0.00,WUHU216HW,2013-02-26 15:03:00,
2013-02-26 08:05:00,36.5,19.7,29.87,West,270,0.4,1.3,50,0.00,,,0.00,WUHU216HW,2013-02-26 15:05:00,
2013-02-26 08:07:00,36.7,19.4,29.87,West,270,1.1,1.3,49,0.00,,,0.00,WUHU216HW,2013-02-26 15:07:00,
2013-02-26 08:08:00,36.9,19.5,29.87,West,270,0.7,1.3,49,0.00,,,0.00,WUHU216HW,2013-02-26 15:08:00,
2013-02-26 08:10:00,37.6,19.6,29.87,West,270,0.0,1.3,48,0.00,,,0.00,WUHU216HW,2013-02-26 15:10:00,
2013-02-26 08:12:00,37.8,19.3,29.87,NW,315,0.0,1.1,47,0.00,,,0.00,WUHU216HW,2013-02-26 15:12:00,
2013-02-26 08:13:00,37.8,19.3,29.87,NW,315,0.0,1.1,47,0.00,,,0.00,WUHU216HW,2013-02-26 15:13:00,
2013-02-26 08:15:00,38.3,19.8,29.88,NW,315,0.0,1.1,47,0.00,,,0.00,WUHU216HW,2013-02-26 15:15:00,
2013-02-26 08:17:00,38.5,19.5,29.88,NW,315,0.0,0.7,46,0.00,,,0.00,WUHU216HW,2013-02-26 15:17:00,
2013-02-26 08:18:00,38.5,19.5,29.88,NW,315,0.0,0.7,46,0.00,,,0.00,WUHU216HW,2013-02-26 15:18:00,
2013-02-26 08:21:00,39.1,19.4,29.88,NW,315,0.4,0.7,45,0.00,,,0.00,WUHU216HW,2013-02-26 15:21:00,
2013-02-26 08:22:00,39.2,19.5,29.88,NW,315,0.7,0.9,45,0.00,,,0.00,WUHU216HW,2013-02-26 15:22:00,
2013-02-26 08:23:00,39.2,19.5,29.88,NW,315,0.4,0.9,45,0.00,,,0.00,WUHU216HW,2013-02-26 15:23:00,
2013-02-26 08:26:00,39.8,19.0,29.88,NNW,338,0.4,0.9,43,0.00,,,0.00,WUHU216HW,2013-02-26 15:26:00,
2013-02-26 08:27:00,40.0,19.2,29.88,NNW,338,0.0,0.9,43,0.00,,,0.00,WUHU216HW,2013-02-26 15:27:00,
2013-02-26 08:28:00,40.0,19.2,29.88,NNW,338,0.0,0.9,43,0.00,,,0.00,WUHU216HW,2013-02-26 15:28:00,
2013-02-26 08:32:00,40.7,19.8,29.88,NNE,23,2.0,2.2,43,0.00,,,0.00,WUHU216HW,2013-02-26 15:32:00,
2013-02-26 08:33:00,40.9,20.0,29.88,NNE,23,1.1,2.2,43,0.00,,,0.00,WUHU216HW,2013-02-26 15:33:00,
2013-02-26 08:37:00,41.4,18.9,29.88,NNW,338,0.7,2.2,40,0.00,,,0.00,WUHU216HW,2013-02-26 15:37:00,
2013-02-26 08:38:00,41.8,19.2,29.88,NNW,338,1.1,2.2,40,0.00,,,0.00,WUHU216HW,2013-02-26 15:38:00,
2013-02-26 08:42:00,42.1,19.5,29.88,NNE,23,1.1,2.7,40,0.00,,,0.00,WUHU216HW,2013-02-26 15:42:00,
2013-02-26 08:43:00,42.1,18.8,29.88,NNW,338,0.7,2.7,39,0.00,,,0.00,WUHU216HW,2013-02-26 15:43:00,
2013-02-26 08:44:00,42.1,19.5,29.88,North,0,0.2,2.7,40,0.00,,,0.00,WUHU216HW,2013-02-26 15:44:00,
2013-02-26 08:47:00,42.7,20.0,29.88,ENE,68,1.3,2.7,40,0.00,,,0.00,WUHU216HW,2013-02-26 15:47:00,
2013-02-26 08:48:00,42.8,20.2,29.88,ENE,68,2.5,2.7,40,0.00,,,0.00,WUHU216HW,2013-02-26 15:48:00,
2013-02-26 08:49:00,42.8,20.2,29.88,NNE,23,3.1,3.1,40,0.00,,,0.00,WUHU216HW,2013-02-26 15:49:00,
2013-02-26 08:52:00,43.2,19.8,29.89,North,0,2.0,4.5,39,0.00,,,0.00,WUHU216HW,2013-02-26 15:52:00,
2013-02-26 08:53:00,43.2,19.8,29.89,North,0,2.0,4.5,39,0.00,,,0.00,WUHU216HW,2013-02-26 15:53:00,
2013-02-26 08:54:00,43.4,20.0,29.89,North,0,1.8,4.5,39,0.00,,,0.00,WUHU216HW,2013-02-26 15:54:00,
2013-02-26 08:58:00,43.6,19.4,29.88,NNE,23,0.9,4.5,38,0.00,,,0.00,WUHU216HW,2013-02-26 15:58:00,
2013-02-26 08:59:00,43.7,19.0,29.88,ENE,68,2.9,4.5,37,0.00,,,0.00,WUHU216HW,2013-02-26 15:59:00,
2013-02-26 09:03:00,44.1,20.0,29.89,NE,45,2.2,3.6,38,0.00,,,0.00,WUHU216HW,2013-02-26 16:03:00,
2013-02-26 09:04:00,44.3,20.2,29.89,NE,45,2.0,3.8,38,0.00,,,0.00,WUHU216HW,2013-02-26 16:04:00,
2013-02-26 09:08:00,44.6,20.4,29.89,NE,45,1.6,3.8,38,0.00,,,0.00,WUHU216HW,2013-02-26 16:08:00,
2013-02-26 09:09:00,44.8,20.6,29.89,NNE,23,1.6,3.8,38,0.00,,,0.00,WUHU216HW,2013-02-26 16:09:00,
2013-02-26 09:10:00,44.8,20.6,29.89,NNE,23,0.9,3.8,38,0.00,,,0.00,WUHU216HW,2013-02-26 16:10:00,
2013-02-26 09:13:00,45.0,20.1,29.89,NNE,23,2.5,3.8,37,0.00,,,0.00,WUHU216HW,2013-02-26 16:13:00,
2013-02-26 09:15:00,45.2,20.3,29.89,NNE,23,2.7,3.8,37,0.00,,,0.00,WUHU216HW,2013-02-26 16:15:00,
2013-02-26 09:18:00,45.5,19.9,29.89,East,90,0.4,3.6,36,0.00,,,0.00,WUHU216HW,2013-02-26 16:18:00,
2013-02-26 09:20:00,45.5,19.3,29.89,NNE,23,3.8,3.8,35,0.00,,,0.00,WUHU216HW,2013-02-26 16:20:00,
2013-02-26 09:23:00,45.7,20.1,29.89,ENE,68,3.4,4.0,36,0.00,,,0.00,WUHU216HW,2013-02-26 16:23:00,
2013-02-26 09:25:00,45.9,19.6,29.89,ENE,68,2.9,4.0,35,0.00,,,0.00,WUHU216HW,2013-02-26 16:25:00,
2013-02-26 09:28:00,46.3,19.9,29.89,East,90,1.3,4.0,35,0.00,,,0.00,WUHU216HW,2013-02-26 16:28:00,
2013-02-26 09:30:00,46.3,19.9,29.89,NE,45,2.2,4.0,35,0.00,,,0.00,WUHU216HW,2013-02-26 16:30:00,
2013-02-26 09:34:00,46.4,18.7,29.89,NE,45,0.0,4.0,33,0.00,,,0.00,WUHU216HW,2013-02-26 16:34:00,
2013-02-26 09:35:00,46.6,18.9,29.89,ESE,113,1.1,4.0,33,0.00,,,0.00,WUHU216HW,2013-02-26 16:35:00,
2013-02-26 09:36:00,46.6,18.9,29.89,SE,135,0.4,4.0,33,0.00,,,0.00,WUHU216HW,2013-02-26 16:36:00,
2013-02-26 09:39:00,46.8,19.7,29.90,NNW,338,1.8,4.0,34,0.00,,,0.00,WUHU216HW,2013-02-26 16:39:00,
2013-02-26 09:40:00,47.0,19.3,29.90,ENE,68,0.9,4.0,33,0.00,,,0.00,WUHU216HW,2013-02-26 16:40:00,
2013-02-26 09:41:00,47.0,19.3,29.89,ESE,113,2.5,4.0,33,0.00,,,0.00,WUHU216HW,2013-02-26 16:41:00,
2013-02-26 09:44:00,47.2,19.4,29.89,ESE,113,2.5,3.8,33,0.00,,,0.00,WUHU216HW,2013-02-26 16:44:00,
2013-02-26 09:45:00,47.2,19.4,29.89,ENE,68,4.0,4.3,33,0.00,,,0.00,WUHU216HW,2013-02-26 16:45:00,
2013-02-26 09:46:00,47.2,19.4,29.89,NE,45,2.9,4.3,33,0.00,,,0.00,WUHU216HW,2013-02-26 16:46:00,
2013-02-26 09:49:00,47.5,19.7,29.89,North,0,2.5,4.3,33,0.00,,,0.00,WUHU216HW,2013-02-26 16:49:00,
2013-02-26 09:50:00,47.7,19.2,29.89,East,90,1.1,4.3,32,0.00,,,0.00,WUHU216HW,2013-02-26 16:50:00,
2013-02-26 09:51:00,47.7,19.2,29.89,NNE,23,0.9,4.3,32,0.00,,,0.00,WUHU216HW,2013-02-26 16:51:00,
2013-02-26 09:54:00,47.7,18.5,29.89,NE,45,1.8,4.3,31,0.00,,,0.00,WUHU216HW,2013-02-26 16:54:00,
2013-02-26 09:55:00,47.9,18.7,29.89,North,0,3.1,5.1,31,0.00,,,0.00,WUHU216HW,2013-02-26 16:55:00,
2013-02-26 09:56:00,47.9,18.7,29.89,NE,45,1.3,5.1,31,0.00,,,0.00,WUHU216HW,2013-02-26 16:56:00,
2013-02-26 09:59:00,47.9,18.0,29.89,NW,315,2.5,5.1,30,0.00,,,0.00,WUHU216HW,2013-02-26 16:59:00,
2013-02-26 10:00:00,47.9,16.2,29.89,NNW,338,1.1,5.1,28,0.00,,,0.00,WUHU216HW,2013-02-26 17:00:00,
2013-02-26 10:01:00,47.9,17.1,29.89,NNE,23,1.8,5.1,29,0.00,,,0.00,WUHU216HW,2013-02-26 17:01:00,
2013-02-26 10:04:00,47.9,17.1,29.89,SW,225,2.0,5.1,29,0.00,,,0.00,WUHU216HW,2013-02-26 17:04:00,
2013-02-26 10:05:00,47.9,17.1,29.89,NW,315,0.4,4.0,29,0.00,,,0.00,WUHU216HW,2013-02-26 17:05:00,
2013-02-26 10:07:00,47.9,18.0,29.89,SSW,203,1.8,3.4,30,0.00,,,0.00,WUHU216HW,2013-02-26 17:07:00,
2013-02-26 10:09:00,47.9,17.1,29.89,WSW,248,1.8,3.4,29,0.00,,,0.00,WUHU216HW,2013-02-26 17:09:00,
2013-02-26 10:10:00,48.1,17.3,29.89,WSW,248,2.5,3.1,29,0.00,,,0.00,WUHU216HW,2013-02-26 17:10:00,
2013-02-26 10:12:00,48.2,17.5,29.89,WSW,248,2.5,3.1,29,0.00,,,0.00,WUHU216HW,2013-02-26 17:12:00,
2013-02-26 10:14:00,48.4,17.6,29.89,WNW,293,2.2,3.1,29,0.00,,,0.00,WUHU216HW,2013-02-26 17:14:00,
2013-02-26 10:15:00,48.4,17.6,29.89,West,270,1.8,3.1,29,0.00,,,0.00,WUHU216HW,2013-02-26 17:15:00,
2013-02-26 10:16:00,48.4,17.6,29.89,West,270,1.1,3.1,29,0.00,,,0.00,WUHU216HW,2013-02-26 17:16:00,
2013-02-26 10:17:00,48.6,16.7,29.88,SW,225,0.9,3.1,28,0.00,,,0.00,WUHU216HW,2013-02-26 17:17:00,
2013-02-26 10:20:00,48.6,15.8,29.88,North,0,1.6,2.5,27,0.00,,,0.00,WUHU216HW,2013-02-26 17:20:00,
2013-02-26 10:21:00,48.8,16.9,29.88,NW,315,0.9,2.5,28,0.00,,,0.00,WUHU216HW,2013-02-26 17:21:00,
2013-02-26 10:22:00,48.8,16.9,29.88,NNW,338,0.7,2.5,28,0.00,,,0.00,WUHU216HW,2013-02-26 17:22:00,
2013-02-26 10:25:00,49.1,17.2,29.88,ENE,68,2.0,3.1,28,0.00,,,0.00,WUHU216HW,2013-02-26 17:25:00,
2013-02-26 10:26:00,49.3,17.4,29.88,ENE,68,3.6,3.6,28,0.00,,,0.00,WUHU216HW,2013-02-26 17:26:00,
2013-02-26 10:27:00,49.3,17.4,29.88,ENE,68,1.8,4.0,28,0.00,,,0.00,WUHU216HW,2013-02-26 17:27:00,
2013-02-26 10:30:00,49.7,17.6,29.87,ESE,113,0.4,4.0,28,0.00,,,0.00,WUHU216HW,2013-02-26 17:30:00,
2013-02-26 10:31:00,49.9,17.8,29.87,NNW,338,0.9,4.0,28,0.00,,,0.00,WUHU216HW,2013-02-26 17:31:00,
2013-02-26 10:32:00,49.9,17.8,29.87,North,0,0.2,4.0,28,0.00,,,0.00,WUHU216HW,2013-02-26 17:32:00,
2013-02-26 10:35:00,50.0,18.0,29.87,NNE,23,2.5,4.0,28,0.00,,,0.00,WUHU216HW,2013-02-26 17:35:00,
2013-02-26 10:36:00,50.0,18.0,29.87,North,0,1.8,3.4,28,0.00,,,0.00,WUHU216HW,2013-02-26 17:36:00,
2013-02-26 10:37:00,50.2,18.1,29.87,ENE,68,1.3,3.4,28,0.00,,,0.00,WUHU216HW,2013-02-26 17:37:00,
2013-02-26 10:41:00,50.8,17.6,29.87,NE,45,1.1,4.5,27,0.00,,,0.00,WUHU216HW,2013-02-26 17:41:00,
2013-02-26 10:42:00,50.8,17.6,29.87,NNE,23,2.7,4.5,27,0.00,,,0.00,WUHU216HW,2013-02-26 17:42:00,
2013-02-26 10:46:00,50.9,17.8,29.87,WNW,293,0.7,4.5,27,0.00,,,0.00,WUHU216HW,2013-02-26 17:46:00,
2013-02-26 10:47:00,50.9,17.8,29.87,SSW,203,0.9,4.5,27,0.00,,,0.00,WUHU216HW,2013-02-26 17:47:00,
2013-02-26 10:51:00,51.3,16.3,29.88,North,0,2.2,5.8,25,0.00,,,0.00,WUHU216HW,2013-02-26 17:51:00,
2013-02-26 10:52:00,51.5,16.5,29.88,NE,45,6.3,6.3,25,0.00,,,0.00,WUHU216HW,2013-02-26 17:52:00,
2013-02-26 10:53:00,51.5,16.5,29.88,NNE,23,4.7,6.3,25,0.00,,,0.00,WUHU216HW,2013-02-26 17:53:00,
2013-02-26 10:56:00,51.8,16.7,29.88,SW,225,0.7,6.3,25,0.00,,,0.00,WUHU216HW,2013-02-26 17:56:00,
2013-02-26 10:57:00,52.0,16.9,29.88,ENE,68,1.8,6.3,25,0.00,,,0.00,WUHU216HW,2013-02-26 17:57:00,
2013-02-26 10:58:00,52.0,16.9,29.88,NNE,23,1.1,6.3,25,0.00,,,0.00,WUHU216HW,2013-02-26 17:58:00,
2013-02-26 11:01:00,52.4,17.2,29.88,East,90,1.6,6.3,25,0.00,,,0.00,WUHU216HW,2013-02-26 18:01:00,
2013-02-26 11:02:00,52.4,17.2,29.88,ENE,68,1.3,5.8,25,0.00,,,0.00,WUHU216HW,2013-02-26 18:02:00,
2013-02-26 11:03:00,52.6,17.4,29.88,NNE,23,1.6,4.5,25,0.00,,,0.00,WUHU216HW,2013-02-26 18:03:00,
2013-02-26 11:06:00,52.9,16.8,29.88,NE,45,3.6,4.0,24,0.00,,,0.00,WUHU216HW,2013-02-26 18:06:00,
2013-02-26 11:07:00,52.9,16.8,29.88,NNW,338,0.4,4.0,24,0.00,,,0.00,WUHU216HW,2013-02-26 18:07:00,
2013-02-26 11:08:00,52.9,16.8,29.88,SE,135,1.1,4.0,24,0.00,,,0.00,WUHU216HW,2013-02-26 18:08:00,
2013-02-26 11:11:00,53.3,17.0,29.88,East,90,1.8,4.0,24,0.00,,,0.00,WUHU216HW,2013-02-26 18:11:00,
2013-02-26 11:12:00,53.3,17.0,29.89,NE,45,2.0,4.0,24,0.00,,,0.00,WUHU216HW,2013-02-26 18:12:00,
2013-02-26 11:13:00,53.5,17.2,29.89,ESE,113,1.8,4.0,24,0.00,,,0.00,WUHU216HW,2013-02-26 18:13:00,
2013-02-26 11:16:00,53.6,16.4,29.89,NE,45,3.1,4.0,23,0.00,,,0.00,WUHU216HW,2013-02-26 18:16:00,
2013-02-26 11:18:00,53.6,17.3,29.89,NE,45,2.2,4.0,24,0.00,,,0.00,WUHU216HW,2013-02-26 18:18:00,
2013-02-26 11:22:00,54.0,16.7,29.89,NE,45,3.4,4.0,23,0.00,,,0.00,WUHU216HW,2013-02-26 18:22:00,
2013-02-26 11:23:00,54.0,15.8,29.89,ENE,68,3.4,4.7,22,0.00,,,0.00,WUHU216HW,2013-02-26 18:23:00,
2013-02-26 11:27:00,54.4,16.0,29.89,NE,45,5.6,5.6,22,0.00,,,0.00,WUHU216HW,2013-02-26 18:27:00,
2013-02-26 11:28:00,54.4,16.0,29.89,North,0,2.5,6.0,22,0.00,,,0.00,WUHU216HW,2013-02-26 18:28:00,
2013-02-26 11:32:00,54.5,14.3,29.90,NNE,23,1.8,6.0,20,0.00,,,0.00,WUHU216HW,2013-02-26 18:32:00,
2013-02-26 11:33:00,54.5,15.2,29.90,ESE,113,3.1,6.0,21,0.00,,,0.00,WUHU216HW,2013-02-26 18:33:00,
2013-02-26 11:34:00,54.7,15.4,29.89,NNW,338,2.5,6.0,21,0.00,,,0.00,WUHU216HW,2013-02-26 18:34:00,
2013-02-26 11:37:00,54.9,13.2,29.90,North,0,5.4,7.4,19,0.00,,,0.00,WUHU216HW,2013-02-26 18:37:00,
2013-02-26 11:38:00,54.9,14.7,29.90,NNW,338,2.5,7.4,20,0.00,,,0.00,WUHU216HW,2013-02-26 18:38:00,
2013-02-26 11:39:00,54.9,14.7,29.90,North,0,1.6,7.4,20,0.00,,,0.00,WUHU216HW,2013-02-26 18:39:00,
2013-02-26 11:42:00,54.9,11.6,29.90,NNW,338,3.4,7.4,18,0.00,,,0.00,WUHU216HW,2013-02-26 18:42:00,
2013-02-26 11:43:00,54.9,10.1,29.90,North,0,1.3,7.4,17,0.00,,,0.00,WUHU216HW,2013-02-26 18:43:00,
2013-02-26 11:44:00,54.9,10.1,29.90,North,0,2.0,7.4,17,0.00,,,0.00,WUHU216HW,2013-02-26 18:44:00,
2013-02-26 11:48:00,54.7,9.9,29.90,North,0,3.1,4.7,17,0.00,,,0.00,WUHU216HW,2013-02-26 18:48:00,
2013-02-26 11:49:00,54.7,9.9,29.90,NE,45,1.1,4.5,17,0.00,,,0.00,WUHU216HW,2013-02-26 18:49:00,
2013-02-26 11:53:00,55.1,11.7,29.90,North,0,2.9,4.5,18,0.00,,,0.00,WUHU216HW,2013-02-26 18:53:00,
2013-02-26 11:54:00,55.1,11.7,29.90,NNW,338,3.1,4.5,18,0.00,,,0.00,WUHU216HW,2013-02-26 18:54:00,
2013-02-26 11:58:00,55.6,10.7,29.89,WNW,293,2.7,6.7,17,0.00,,,0.00,WUHU216HW,2013-02-26 18:58:00,
2013-02-26 11:59:00,55.6,10.7,29.89,ENE,68,0.9,6.7,17,0.00,,,0.00,WUHU216HW,2013-02-26 18:59:00,
2013-02-26 12:03:00,56.0,11.0,29.89,North,0,2.7,6.7,17,0.00,,,0.00,WUHU216HW,2013-02-26 19:03:00,
2013-02-26 12:04:00,56.0,11.0,29.89,NNE,23,2.9,6.7,17,0.00,,,0.00,WUHU216HW,2013-02-26 19:04:00,
2013-02-26 12:05:00,56.2,11.1,29.89,NE,45,3.6,6.0,17,0.00,,,0.00,WUHU216HW,2013-02-26 19:05:00,
2013-02-26 12:08:00,56.5,11.3,29.89,NNW,338,7.8,7.8,17,0.00,,,0.00,WUHU216HW,2013-02-26 19:08:00,
2013-02-26 12:09:00,56.5,11.3,29.89,North,0,5.4,7.8,17,0.00,,,0.00,WUHU216HW,2013-02-26 19:09:00,
2013-02-26 12:10:00,56.5,11.3,29.88,NNW,338,4.9,7.8,17,0.00,,,0.00,WUHU216HW,2013-02-26 19:10:00,
2013-02-26 12:14:00,56.9,11.6,29.88,NNE,23,1.1,7.8,17,0.00,,,0.00,WUHU216HW,2013-02-26 19:14:00,
2013-02-26 12:15:00,57.1,11.8,29.88,NW,315,3.4,7.8,17,0.00,,,0.00,WUHU216HW,2013-02-26 19:15:00,
2013-02-26 12:19:00,57.2,11.9,29.88,NE,45,0.0,6.7,17,0.00,,,0.00,WUHU216HW,2013-02-26 19:19:00,
2013-02-26 12:20:00,57.2,11.9,29.88,SE,135,0.4,6.7,17,0.00,,,0.00,WUHU216HW,2013-02-26 19:20:00,
2013-02-26 12:24:00,57.6,10.6,29.88,NNE,23,4.3,6.7,16,0.00,,,0.00,WUHU216HW,2013-02-26 19:24:00,
2013-02-26 12:25:00,57.8,12.3,29.88,ENE,68,1.8,6.7,17,0.00,,,0.00,WUHU216HW,2013-02-26 19:25:00,
2013-02-26 12:29:00,58.0,12.5,29.88,North,0,4.0,5.8,17,0.00,,,0.00,WUHU216HW,2013-02-26 19:29:00,
2013-02-26 12:30:00,58.1,11.1,29.88,WNW,293,2.0,5.8,16,0.00,,,0.00,WUHU216HW,2013-02-26 19:30:00,
2013-02-26 12:31:00,58.3,11.3,29.88,West,270,0.7,5.8,16,0.00,,,0.00,WUHU216HW,2013-02-26 19:31:00,
2013-02-26 12:34:00,58.5,13.0,29.87,West,270,0.0,5.8,17,0.00,,,0.00,WUHU216HW,2013-02-26 19:34:00,
2013-02-26 12:35:00,58.5,13.0,29.87,NNW,338,4.3,5.8,17,0.00,,,0.00,WUHU216HW,2013-02-26 19:35:00,
2013-02-26 12:37:00,58.7,13.1,29.87,NNE,23,1.8,5.8,17,0.00,,,0.00,WUHU216HW,2013-02-26 19:37:00,
2013-02-26 12:39:00,58.9,11.7,29.87,SSW,203,1.3,5.4,16,0.00,,,0.00,WUHU216HW,2013-02-26 19:39:00,
2013-02-26 12:40:00,58.9,11.7,29.87,West,270,1.8,5.4,16,0.00,,,0.00,WUHU216HW,2013-02-26 19:40:00,
2013-02-26 12:41:00,59.0,13.3,29.87,North,0,2.5,5.4,17,0.00,,,0.00,WUHU216HW,2013-02-26 19:41:00,
2013-02-26 12:42:00,59.0,10.3,29.87,North,0,6.3,6.3,15,0.00,,,0.00,WUHU216HW,2013-02-26 19:42:00,
2013-02-26 12:44:00,59.2,10.5,29.87,WNW,293,3.4,6.3,15,0.00,,,0.00,WUHU216HW,2013-02-26 19:44:00,
2013-02-26 12:45:00,59.2,7.3,29.87,NNW,338,7.6,8.5,13,0.00,,,0.00,WUHU216HW,2013-02-26 19:45:00,
2013-02-26 12:47:00,59.2,8.8,29.87,NE,45,4.0,8.5,14,0.00,,,0.00,WUHU216HW,2013-02-26 19:47:00,
2013-02-26 12:49:00,59.0,10.3,29.87,NE,45,6.3,8.5,15,0.00,,,0.00,WUHU216HW,2013-02-26 19:49:00,
2013-02-26 12:50:00,59.0,10.3,29.87,NNW,338,5.4,8.5,15,0.00,,,0.00,WUHU216HW,2013-02-26 19:50:00,
2013-02-26 12:51:00,59.2,10.5,29.87,NNE,23,4.7,8.5,15,0.00,,,0.00,WUHU216HW,2013-02-26 19:51:00,
2013-02-26 12:53:00,59.4,9.0,29.87,NNW,338,6.3,8.5,14,0.00,,,0.00,WUHU216HW,2013-02-26 19:53:00,
2013-02-26 12:54:00,59.6,6.0,29.87,WNW,293,6.3,8.5,12,0.00,,,0.00,WUHU216HW,2013-02-26 19:54:00,
2013-02-26 12:55:00,59.6,6.0,29.86,West,270,8.7,8.7,12,0.00,,,0.00,WUHU216HW,2013-02-26 19:55:00,
2013-02-26 12:56:00,59.6,7.7,29.86,West,270,6.3,8.7,13,0.00,,,0.00,WUHU216HW,2013-02-26 19:56:00,
2013-02-26 12:59:00,59.8,7.7,29.86,NW,315,6.0,8.7,13,0.00,,,0.00,WUHU216HW,2013-02-26 19:59:00,
2013-02-26 13:00:00,59.8,7.7,29.86,North,0,9.4,9.4,13,0.00,,,0.00,WUHU216HW,2013-02-26 20:00:00,
2013-02-26 13:01:00,59.9,7.9,29.86,North,0,6.9,9.4,13,0.00,,,0.00,WUHU216HW,2013-02-26 20:01:00,
2013-02-26 13:04:00,60.1,6.5,29.86,North,0,5.4,9.6,12,0.00,,,0.00,WUHU216HW,2013-02-26 20:04:00,
2013-02-26 13:05:00,60.1,8.1,29.86,North,0,6.3,9.6,13,0.00,,,0.00,WUHU216HW,2013-02-26 20:05:00,
2013-02-26 13:06:00,60.1,6.5,29.86,NE,45,9.4,9.6,12,0.00,,,0.00,WUHU216HW,2013-02-26 20:06:00,
2013-02-26 13:09:00,60.1,6.5,29.86,NW,315,7.6,9.6,12,0.00,,,0.00,WUHU216HW,2013-02-26 20:09:00,
2013-02-26 13:10:00,60.1,5.0,29.86,NNW,338,4.3,9.6,11,0.00,,,0.00,WUHU216HW,2013-02-26 20:10:00,
2013-02-26 13:11:00,60.3,6.7,29.86,ENE,68,1.3,9.6,12,0.00,,,0.00,WUHU216HW,2013-02-26 20:11:00,
2013-02-26 13:15:00,60.5,6.9,29.85,WNW,293,8.5,9.4,12,0.00,,,0.00,WUHU216HW,2013-02-26 20:15:00,
2013-02-26 13:16:00,60.7,5.4,29.85,NNW,338,6.9,10.7,11,0.00,,,0.00,WUHU216HW,2013-02-26 20:16:00,
2013-02-26 13:20:00,61.2,5.9,29.85,NNE,23,4.0,10.7,11,0.00,,,0.00,WUHU216HW,2013-02-26 20:20:00,
2013-02-26 13:21:00,61.2,7.4,29.85,North,0,4.0,10.7,12,0.00,,,0.00,WUHU216HW,2013-02-26 20:21:00,
2013-02-26 13:25:00,61.7,4.7,29.85,NNW,338,4.0,13.2,10,0.00,,,0.00,WUHU216HW,2013-02-26 20:25:00,
2013-02-26 13:26:00,61.7,6.2,29.85,NNW,338,6.7,13.2,11,0.00,,,0.00,WUHU216HW,2013-02-26 20:26:00,
2013-02-26 13:27:00,61.6,6.1,29.84,NW,315,9.8,13.2,11,0.00,,,0.00,WUHU216HW,2013-02-26 20:27:00,
2013-02-26 13:30:00,61.9,6.4,29.84,North,0,12.3,14.8,11,0.00,,,0.00,WUHU216HW,2013-02-26 20:30:00,
2013-02-26 13:31:00,61.9,6.4,29.84,North,0,8.5,14.8,11,0.00,,,0.00,WUHU216HW,2013-02-26 20:31:00,
2013-02-26 13:32:00,61.9,6.4,29.84,North,0,6.9,14.8,11,0.00,,,0.00,WUHU216HW,2013-02-26 20:32:00,
2013-02-26 13:36:00,62.1,5.0,29.84,NNW,338,4.9,14.8,10,0.00,,,0.00,WUHU216HW,2013-02-26 20:36:00,
2013-02-26 13:37:00,62.3,6.7,29.84,NNE,23,12.1,14.8,11,0.00,,,0.00,WUHU216HW,2013-02-26 20:37:00,
2013-02-26 13:41:00,62.5,6.9,29.84,North,0,6.3,13.2,11,0.00,,,0.00,WUHU216HW,2013-02-26 20:41:00,
2013-02-26 13:42:00,62.6,6.9,29.84,WSW,248,5.6,12.1,11,0.00,,,0.00,WUHU216HW,2013-02-26 20:42:00,
2013-02-26 13:46:00,63.0,5.7,29.84,NNW,338,5.4,13.9,9,0.00,,,0.00,WUHU216HW,2013-02-26 20:46:00,
2013-02-26 13:48:00,63.0,5.7,29.84,NW,315,9.8,13.9,10,0.00,,,0.00,WUHU216HW,2013-02-26 20:48:00,
2013-02-26 13:51:00,63.0,5.7,29.84,NNW,338,10.7,13.9,10,0.00,,,0.00,WUHU216HW,2013-02-26 20:51:00,
2013-02-26 13:52:00,63.0,5.7,29.84,NW,315,13.2,13.9,9,0.00,,,0.00,WUHU216HW,2013-02-26 20:52:00,
2013-02-26 13:53:00,63.0,5.7,29.84,NW,315,15.9,15.9,8,0.00,,,0.00,WUHU216HW,2013-02-26 20:53:00,
2013-02-26 13:56:00,62.8,5.5,29.83,NNE,23,4.7,15.9,10,0.00,,,0.00,WUHU216HW,2013-02-26 20:56:00,
2013-02-26 13:57:00,62.8,5.5,29.83,NNW,338,9.8,15.9,10,0.00,,,0.00,WUHU216HW,2013-02-26 20:57:00,
2013-02-26 13:58:00,63.0,5.7,29.84,West,270,9.8,15.9,10,0.00,,,0.00,WUHU216HW,2013-02-26 20:58:00,
2013-02-26 14:01:00,63.4,6.0,29.83,West,270,6.9,15.9,10,0.00,,,0.00,WUHU216HW,2013-02-26 21:01:00,
2013-02-26 14:02:00,63.4,6.0,29.83,NNW,338,8.9,15.9,10,0.00,,,0.00,WUHU216HW,2013-02-26 21:02:00,
2013-02-26 14:03:00,63.4,6.0,29.83,NW,315,6.3,15.9,8,0.00,,,0.00,WUHU216HW,2013-02-26 21:03:00,
2013-02-26 14:06:00,63.4,6.0,29.83,NW,315,10.5,13.0,10,0.00,,,0.00,WUHU216HW,2013-02-26 21:06:00,
2013-02-26 14:07:00,63.4,6.0,29.83,WNW,293,10.5,13.0,10,0.00,,,0.00,WUHU216HW,2013-02-26 21:07:00,
2013-02-26 14:08:00,63.5,6.0,29.83,NNW,338,12.1,14.5,9,0.00,,,0.00,WUHU216HW,2013-02-26 21:08:00,
2013-02-26 14:11:00,63.4,6.0,29.83,NW,315,11.2,15.2,8,0.00,,,0.00,WUHU216HW,2013-02-26 21:11:00,
2013-02-26 14:12:00,63.4,6.0,29.83,NNW,338,11.4,15.2,8,0.00,,,0.00,WUHU216HW,2013-02-26 21:12:00,
2013-02-26 14:13:00,63.2,5.8,29.83,NNW,338,9.8,15.2,8,0.00,,,0.00,WUHU216HW,2013-02-26 21:13:00,
2013-02-26 14:16:00,63.4,6.0,29.83,WNW,293,8.3,15.2,9,0.00,,,0.00,WUHU216HW,2013-02-26 21:16:00,
2013-02-26 14:17:00,63.4,6.0,29.83,WNW,293,8.3,15.2,9,0.00,,,0.00,WUHU216HW,2013-02-26 21:17:00,
2013-02-26 14:18:00,63.4,6.0,29.83,West,270,6.9,15.2,10,0.00,,,0.00,WUHU216HW,2013-02-26 21:18:00,
2013-02-26 14:21:00,63.5,6.0,29.83,NNW,338,12.1,14.8,10,0.00,,,0.00,WUHU216HW,2013-02-26 21:21:00,
2013-02-26 14:22:00,63.7,6.1,29.83,NNW,338,10.7,14.8,10,0.00,,,0.00,WUHU216HW,2013-02-26 21:22:00,
2013-02-26 14:23:00,63.7,6.1,29.83,WNW,293,9.4,12.1,9,0.00,,,0.00,WUHU216HW,2013-02-26 21:23:00,
2013-02-26 14:27:00,63.7,6.1,29.83,NNW,338,15.9,16.6,8,0.00,,,0.00,WUHU216HW,2013-02-26 21:27:00,
2013-02-26 14:28:00,63.4,6.0,29.83,NNE,23,12.1,18.3,9,0.00,,,0.00,WUHU216HW,2013-02-26 21:28:00,
2013-02-26 14:32:00,63.2,5.8,29.83,NNW,338,13.4,18.3,8,0.00,,,0.00,WUHU216HW,2013-02-26 21:32:00,
2013-02-26 14:33:00,63.0,5.7,29.84,NNW,338,15.4,18.6,9,0.00,,,0.00,WUHU216HW,2013-02-26 21:33:00,
2013-02-26 14:37:00,62.6,5.4,29.84,WNW,293,10.3,19.9,8,0.00,,,0.00,WUHU216HW,2013-02-26 21:37:00,
2013-02-26 14:38:00,62.6,5.4,29.84,NNW,338,14.3,19.9,10,0.00,,,0.00,WUHU216HW,2013-02-26 21:38:00,
2013-02-26 14:39:00,62.6,5.4,29.84,NNW,338,14.3,19.9,9,0.00,,,0.00,WUHU216HW,2013-02-26 21:39:00,
2013-02-26 14:42:00,62.8,5.5,29.84,NW,315,15.4,19.9,10,0.00,,,0.00,WUHU216HW,2013-02-26 21:42:00,
2013-02-26 14:44:00,62.8,5.5,29.84,NNW,338,15.0,19.9,8,0.00,,,0.00,WUHU216HW,2013-02-26 21:44:00,
2013-02-26 14:47:00,62.8,5.5,29.84,WNW,293,13.4,16.3,10,0.00,,,0.00,WUHU216HW,2013-02-26 21:47:00,
2013-02-26 14:48:00,62.8,5.5,29.84,NNW,338,8.9,15.7,9,0.00,,,0.00,WUHU216HW,2013-02-26 21:48:00,
2013-02-26 14:49:00,62.6,5.4,29.84,WNW,293,15.4,15.7,10,0.00,,,0.00,WUHU216HW,2013-02-26 21:49:00,
2013-02-26 14:52:00,62.5,5.2,29.84,West,270,11.0,15.7,10,0.00,,,0.00,WUHU216HW,2013-02-26 21:52:00,
2013-02-26 14:53:00,62.5,5.2,29.84,WNW,293,9.2,15.7,10,0.00,,,0.00,WUHU216HW,2013-02-26 21:53:00,
2013-02-26 14:54:00,62.3,5.1,29.84,NW,315,12.3,15.7,10,0.00,,,0.00,WUHU216HW,2013-02-26 21:54:00,
2013-02-26 14:57:00,62.3,5.1,29.84,NW,315,11.9,16.3,10,0.00,,,0.00,WUHU216HW,2013-02-26 21:57:00,
2013-02-26 14:58:00,62.3,5.1,29.84,NNW,338,12.3,16.3,10,0.00,,,0.00,WUHU216HW,2013-02-26 21:58:00,
2013-02-26 14:59:00,62.1,5.0,29.84,NW,315,14.1,16.3,10,0.00,,,0.00,WUHU216HW,2013-02-26 21:59:00,
2013-02-26 15:02:00,62.1,5.0,29.84,NW,315,15.7,17.9,10,0.00,,,0.00,WUHU216HW,2013-02-26 22:02:00,
2013-02-26 15:03:00,62.1,5.0,29.84,NNW,338,14.1,17.9,10,0.00,,,0.00,WUHU216HW,2013-02-26 22:03:00,
2013-02-26 15:04:00,62.1,5.0,29.84,NNW,338,10.7,17.9,10,0.00,,,0.00,WUHU216HW,2013-02-26 22:04:00,
2013-02-26 15:07:00,61.9,4.9,29.84,NW,315,8.7,17.9,10,0.00,,,0.00,WUHU216HW,2013-02-26 22:07:00,
2013-02-26 15:08:00,61.9,4.9,29.84,NNW,338,12.5,17.9,10,0.00,,,0.00,WUHU216HW,2013-02-26 22:08:00,
2013-02-26 15:09:00,61.9,4.9,29.84,NW,315,12.1,17.9,10,0.00,,,0.00,WUHU216HW,2013-02-26 22:09:00,
2013-02-26 15:13:00,61.9,6.4,29.84,NNW,338,10.1,15.7,11,0.00,,,0.00,WUHU216HW,2013-02-26 22:13:00,
2013-02-26 15:14:00,62.1,5.0,29.84,NW,315,16.1,16.1,10,0.00,,,0.00,WUHU216HW,2013-02-26 22:14:00,
2013-02-26 15:15:00,61.9,6.4,29.84,NW,315,11.4,17.2,11,0.00,,,0.00,WUHU216HW,2013-02-26 22:15:00,
2013-02-26 15:18:00,61.6,6.1,29.84,NNW,338,15.7,18.1,11,0.00,,,0.00,WUHU216HW,2013-02-26 22:18:00,
2013-02-26 15:19:00,61.4,5.9,29.84,NW,315,11.9,18.6,11,0.00,,,0.00,WUHU216HW,2013-02-26 22:19:00,
2013-02-26 15:20:00,61.4,5.9,29.84,NNW,338,15.2,18.6,11,0.00,,,0.00,WUHU216HW,2013-02-26 22:20:00,
2013-02-26 15:23:00,61.0,5.7,29.84,NW,315,13.0,18.6,11,0.00,,,0.00,WUHU216HW,2013-02-26 22:23:00,
2013-02-26 15:24:00,60.8,5.5,29.84,North,0,10.1,18.6,11,0.00,,,0.00,WUHU216HW,2013-02-26 22:24:00,
2013-02-26 15:25:00,60.8,7.1,29.84,NW,315,15.7,18.6,12,0.00,,,0.00,WUHU216HW,2013-02-26 22:25:00,
2013-02-26 15:28:00,61.0,7.2,29.84,NW,315,10.5,18.6,12,0.00,,,0.00,WUHU216HW,2013-02-26 22:28:00,
2013-02-26 15:29:00,61.0,5.7,29.84,WNW,293,16.3,17.7,11,0.00,,,0.00,WUHU216HW,2013-02-26 22:29:00,
2013-02-26 15:30:00,60.8,7.1,29.84,NW,315,10.3,17.7,12,0.00,,,0.00,WUHU216HW,2013-02-26 22:30:00,
2013-02-26 15:33:00,60.5,6.9,29.85,NW,315,14.3,20.4,12,0.00,,,0.00,WUHU216HW,2013-02-26 22:33:00,
2013-02-26 15:34:00,60.3,6.7,29.84,WNW,293,16.3,20.4,12,0.00,,,0.00,WUHU216HW,2013-02-26 22:34:00,
2013-02-26 15:35:00,60.3,6.7,29.84,NW,315,11.9,20.4,12,0.00,,,0.00,WUHU216HW,2013-02-26 22:35:00,
2013-02-26 15:38:00,60.1,6.5,29.84,NW,315,18.3,20.4,12,0.00,,,0.00,WUHU216HW,2013-02-26 22:38:00,
2013-02-26 15:39:00,60.3,6.7,29.84,West,270,14.5,20.4,12,0.00,,,0.00,WUHU216HW,2013-02-26 22:39:00,
2013-02-26 15:40:00,60.1,6.5,29.84,NW,315,13.4,20.4,12,0.00,,,0.00,WUHU216HW,2013-02-26 22:40:00,
2013-02-26 15:43:00,59.9,6.4,29.84,NNW,338,13.4,18.8,12,0.00,,,0.00,WUHU216HW,2013-02-26 22:43:00,
2013-02-26 15:44:00,59.9,6.4,29.84,West,270,10.5,18.8,12,0.00,,,0.00,WUHU216HW,2013-02-26 22:44:00,
2013-02-26 15:45:00,59.8,6.2,29.84,ESE,113,16.3,18.8,12,0.00,,,0.00,WUHU216HW,2013-02-26 22:45:00,
2013-02-26 15:48:00,59.8,6.2,29.85,NW,315,17.0,20.1,12,0.00,,,0.00,WUHU216HW,2013-02-26 22:48:00,
2013-02-26 15:49:00,59.6,6.0,29.85,NW,315,15.7,20.1,12,0.00,,,0.00,WUHU216HW,2013-02-26 22:49:00,
2013-02-26 15:50:00,59.4,6.0,29.85,West,270,12.8,20.1,12,0.00,,,0.00,WUHU216HW,2013-02-26 22:50:00,
2013-02-26 15:53:00,59.4,6.0,29.85,NNW,338,11.4,20.1,12,0.00,,,0.00,WUHU216HW,2013-02-26 22:53:00,
2013-02-26 15:54:00,59.4,6.0,29.85,NNW,338,17.9,20.1,12,0.00,,,0.00,WUHU216HW,2013-02-26 22:54:00,
2013-02-26 15:55:00,59.4,6.0,29.85,NNW,338,16.1,20.1,12,0.00,,,0.00,WUHU216HW,2013-02-26 22:55:00,
2013-02-26 15:56:00,59.4,6.0,29.85,NW,315,17.0,20.1,12,0.00,,,0.00,WUHU216HW,2013-02-26 22:56:00,
2013-02-26 15:59:00,59.4,6.0,29.85,NW,315,15.9,18.6,12,0.00,,,0.00,WUHU216HW,2013-02-26 22:59:00,
2013-02-26 16:00:00,59.4,6.0,29.85,NW,315,13.6,18.6,12,0.00,,,0.00,WUHU216HW,2013-02-26 23:00:00,
2013-02-26 16:01:00,59.4,6.0,29.85,West,270,15.4,21.0,12,0.00,,,0.00,WUHU216HW,2013-02-26 23:01:00,
2013-02-26 16:04:00,59.0,5.6,29.85,NNW,338,8.7,21.0,12,0.00,,,0.00,WUHU216HW,2013-02-26 23:04:00,
2013-02-26 16:05:00,59.0,5.6,29.85,NNW,338,10.7,21.0,12,0.00,,,0.00,WUHU216HW,2013-02-26 23:05:00,
2013-02-26 16:06:00,59.0,5.6,29.85,NNW,338,19.5,21.0,12,0.00,,,0.00,WUHU216HW,2013-02-26 23:06:00,
2013-02-26 16:09:00,58.9,5.5,29.86,NNW,338,18.3,21.0,12,0.00,,,0.00,WUHU216HW,2013-02-26 23:09:00,
2013-02-26 16:10:00,58.9,5.5,29.85,NNW,338,14.8,21.0,12,0.00,,,0.00,WUHU216HW,2013-02-26 23:10:00,
2013-02-26 16:11:00,58.9,5.5,29.85,NW,315,12.3,19.5,12,0.00,,,0.00,WUHU216HW,2013-02-26 23:11:00,
2013-02-26 16:14:00,58.7,5.3,29.85,NW,315,13.4,19.5,12,0.00,,,0.00,WUHU216HW,2013-02-26 23:14:00,
2013-02-26 16:15:00,58.9,5.5,29.86,NNW,338,17.9,19.5,12,0.00,,,0.00,WUHU216HW,2013-02-26 23:15:00,
2013-02-26 16:16:00,58.9,5.5,29.86,West,270,11.0,19.5,12,0.00,,,0.00,WUHU216HW,2013-02-26 23:16:00,
2013-02-26 16:19:00,58.7,5.3,29.86,NNW,338,14.3,18.6,12,0.00,,,0.00,WUHU216HW,2013-02-26 23:19:00,
2013-02-26 16:20:00,58.7,5.3,29.86,NW,315,15.4,18.6,12,0.00,,,0.00,WUHU216HW,2013-02-26 23:20:00,
2013-02-26 16:21:00,58.5,5.2,29.86,WNW,293,15.0,18.6,12,0.00,,,0.00,WUHU216HW,2013-02-26 23:21:00,
2013-02-26 16:24:00,58.3,5.0,29.86,NW,315,17.4,21.5,12,0.00,,,0.00,WUHU216HW,2013-02-26 23:24:00,
2013-02-26 16:25:00,58.3,5.0,29.86,NW,315,17.4,21.5,12,0.00,,,0.00,WUHU216HW,2013-02-26 23:25:00,
2013-02-26 16:26:00,58.1,4.9,29.86,West,270,15.0,21.5,12,0.00,,,0.00,WUHU216HW,2013-02-26 23:26:00,
2013-02-26 16:29:00,58.3,5.0,29.86,NW,315,13.4,21.5,12,0.00,,,0.00,WUHU216HW,2013-02-26 23:29:00,
2013-02-26 16:30:00,58.3,5.0,29.86,NW,315,15.7,21.5,12,0.00,,,0.00,WUHU216HW,2013-02-26 23:30:00,
2013-02-26 16:31:00,58.3,5.0,29.86,NNW,338,12.1,21.5,12,0.00,,,0.00,WUHU216HW,2013-02-26 23:31:00,
2013-02-26 16:34:00,58.1,3.3,29.86,WNW,293,14.5,18.6,11,0.00,,,0.00,WUHU216HW,2013-02-26 23:34:00,
2013-02-26 16:35:00,58.1,3.3,29.86,NW,315,11.9,18.6,11,0.00,,,0.00,WUHU216HW,2013-02-26 23:35:00,
2013-02-26 16:37:00,58.1,3.3,29.86,NW,315,17.4,18.6,11,0.00,,,0.00,WUHU216HW,2013-02-26 23:37:00,
2013-02-26 16:39:00,58.0,3.3,29.86,WNW,293,10.3,18.6,11,0.00,,,0.00,WUHU216HW,2013-02-26 23:39:00,
2013-02-26 16:40:00,58.0,4.8,29.86,NW,315,15.0,18.6,12,0.00,,,0.00,WUHU216HW,2013-02-26 23:40:00,
2013-02-26 16:41:00,58.0,4.8,29.86,NW,315,14.8,18.6,12,0.00,,,0.00,WUHU216HW,2013-02-26 23:41:00,
2013-02-26 16:42:00,58.0,4.8,29.86,NNW,338,15.7,18.6,12,0.00,,,0.00,WUHU216HW,2013-02-26 23:42:00,
2013-02-26 16:44:00,57.8,4.6,29.86,NNW,338,13.9,18.6,12,0.00,,,0.00,WUHU216HW,2013-02-26 23:44:00,
2013-02-26 16:45:00,57.8,4.6,29.86,NW,315,14.5,18.6,12,0.00,,,0.00,WUHU216HW,2013-02-26 23:45:00,
2013-02-26 16:46:00,58.0,4.8,29.86,North,0,16.8,18.6,12,0.00,,,0.00,WUHU216HW,2013-02-26 23:46:00,
2013-02-26 16:47:00,57.8,4.6,29.86,NW,315,18.3,20.8,12,0.00,,,0.00,WUHU216HW,2013-02-26 23:47:00,
2013-02-26 16:50:00,57.6,4.5,29.86,NW,315,12.1,20.8,12,0.00,,,0.00,WUHU216HW,2013-02-26 23:50:00,
2013-02-26 16:51:00,57.6,4.5,29.86,NNW,338,16.1,20.8,12,0.00,,,0.00,WUHU216HW,2013-02-26 23:51:00,
2013-02-26 16:52:00,57.6,6.0,29.86,NW,315,9.8,20.8,13,0.00,,,0.00,WUHU216HW,2013-02-26 23:52:00,
2013-02-26 16:55:00,57.6,6.0,29.87,NW,315,10.7,20.8,13,0.00,,,0.00,WUHU216HW,2013-02-26 23:55:00,
2013-02-26 16:56:00,57.8,4.6,29.87,NW,315,15.2,20.8,12,0.00,,,0.00,WUHU216HW,2013-02-26 23:56:00,
2013-02-26 16:57:00,57.8,4.6,29.87,WNW,293,8.5,18.3,12,0.00,,,0.00,WUHU216HW,2013-02-26 23:57:00,
2013-02-26 17:00:00,57.6,4.5,29.86,NW,315,15.4,18.1,12,0.00,,,0.00,WUHU216HW,2013-02-27 00:00:00,
2013-02-26 17:01:00,57.6,4.5,29.86,NNW,338,21.5,21.5,12,0.00,,,0.00,WUHU216HW,2013-02-27 00:01:00,
2013-02-26 17:02:00,57.4,4.3,29.87,NNW,338,15.7,21.5,12,0.00,,,0.00,WUHU216HW,2013-02-27 00:02:00,
2013-02-26 17:05:00,57.2,5.8,29.87,NW,315,15.4,21.5,13,0.00,,,0.00,WUHU216HW,2013-02-27 00:05:00,
2013-02-26 17:06:00,57.2,5.8,29.87,NW,315,12.5,21.5,13,0.00,,,0.00,WUHU216HW,2013-02-27 00:06:00,
2013-02-26 17:07:00,57.2,5.8,29.87,West,270,14.8,21.5,13,0.00,,,0.00,WUHU216HW,2013-02-27 00:07:00,
2013-02-26 17:10:00,57.1,5.6,29.87,NW,315,15.7,21.5,13,0.00,,,0.00,WUHU216HW,2013-02-27 00:10:00,
2013-02-26 17:11:00,57.2,5.8,29.87,NW,315,12.1,17.2,13,0.00,,,0.00,WUHU216HW,2013-02-27 00:11:00,
2013-02-26 17:12:00,57.2,5.8,29.87,NNW,338,13.0,17.2,13,0.00,,,0.00,WUHU216HW,2013-02-27 00:12:00,
2013-02-26 17:15:00,57.2,5.8,29.87,WNW,293,10.1,16.6,13,0.00,,,0.00,WUHU216HW,2013-02-27 00:15:00,
2013-02-26 17:16:00,57.2,7.3,29.87,WNW,293,11.4,16.6,14,0.00,,,0.00,WUHU216HW,2013-02-27 00:16:00,
2013-02-26 17:17:00,57.2,5.8,29.87,NW,315,12.8,16.6,13,0.00,,,0.00,WUHU216HW,2013-02-27 00:17:00,
2013-02-26 17:20:00,57.2,5.8,29.87,NW,315,11.6,16.6,13,0.00,,,0.00,WUHU216HW,2013-02-27 00:20:00,
2013-02-26 17:21:00,57.2,5.8,29.87,WNW,293,11.6,16.6,13,0.00,,,0.00,WUHU216HW,2013-02-27 00:21:00,
2013-02-26 17:22:00,57.4,5.9,29.87,NW,315,13.2,16.6,13,0.00,,,0.00,WUHU216HW,2013-02-27 00:22:00,
2013-02-26 17:25:00,57.6,6.0,29.87,West,270,12.1,15.7,13,0.00,,,0.00,WUHU216HW,2013-02-27 00:25:00,
2013-02-26 17:26:00,57.6,6.0,29.87,NW,315,13.6,15.7,13,0.00,,,0.00,WUHU216HW,2013-02-27 00:26:00,
2013-02-26 17:27:00,57.6,6.0,29.87,NW,315,14.1,15.4,13,0.00,,,0.00,WUHU216HW,2013-02-27 00:27:00,
2013-02-26 17:31:00,57.6,6.0,29.87,North,0,14.3,17.0,13,0.00,,,0.00,WUHU216HW,2013-02-27 00:31:00,
2013-02-26 17:32:00,57.6,6.0,29.87,WNW,293,14.1,17.0,13,0.00,,,0.00,WUHU216HW,2013-02-27 00:32:00,
2013-02-26 17:36:00,57.6,6.0,29.87,NW,315,13.4,17.0,13,0.00,,,0.00,WUHU216HW,2013-02-27 00:36:00,
2013-02-26 17:37:00,57.6,7.6,29.87,West,270,12.1,17.0,14,0.00,,,0.00,WUHU216HW,2013-02-27 00:37:00,
2013-02-26 17:38:00,57.6,7.6,29.87,NW,315,13.6,17.0,14,0.00,,,0.00,WUHU216HW,2013-02-27 00:38:00,
2013-02-26 17:41:00,57.6,6.0,29.87,WNW,293,14.1,17.0,13,0.00,,,0.00,WUHU216HW,2013-02-27 00:41:00,
2013-02-26 17:42:00,57.6,6.0,29.87,NW,315,14.3,17.0,13,0.00,,,0.00,WUHU216HW,2013-02-27 00:42:00,
2013-02-26 17:43:00,57.6,6.0,29.87,NW,315,10.5,17.0,13,0.00,,,0.00,WUHU216HW,2013-02-27 00:43:00,
2013-02-26 17:46:00,56.5,8.3,29.87,West,270,9.2,15.0,15,0.00,,,0.00,WUHU216HW,2013-02-27 00:46:00,
2013-02-26 17:47:00,56.2,8.0,29.87,West,270,8.5,15.0,15,0.00,,,0.00,WUHU216HW,2013-02-27 00:47:00,
2013-02-26 17:48:00,56.0,7.8,29.87,NW,315,11.0,15.0,15,0.00,,,0.00,WUHU216HW,2013-02-27 00:48:00,
2013-02-26 17:51:00,55.1,8.7,29.87,West,270,11.4,15.0,16,0.00,,,0.00,WUHU216HW,2013-02-27 00:51:00,
2013-02-26 17:52:00,54.9,8.6,29.87,NW,315,10.1,15.0,16,0.00,,,0.00,WUHU216HW,2013-02-27 00:52:00,
2013-02-26 17:53:00,54.7,8.4,29.87,WNW,293,11.6,15.0,16,0.00,,,0.00,WUHU216HW,2013-02-27 00:53:00,
2013-02-26 17:56:00,54.0,6.2,29.87,West,270,11.4,15.0,15,0.00,,,0.00,WUHU216HW,2013-02-27 00:56:00,
2013-02-26 17:57:00,54.0,6.2,29.87,West,270,11.4,15.0,15,0.00,,,0.00,WUHU216HW,2013-02-27 00:57:00,
2013-02-26 17:58:00,53.8,6.1,29.87,West,270,8.1,15.0,15,0.00,,,0.00,WUHU216HW,2013-02-27 00:58:00,
2013-02-26 18:01:00,53.3,7.2,29.87,WNW,293,6.9,15.0,16,0.00,,,0.00,WUHU216HW,2013-02-27 01:01:00,
2013-02-26 18:02:00,53.3,7.2,29.87,WSW,248,6.7,11.6,16,0.00,,,0.00,WUHU216HW,2013-02-27 01:02:00,
2013-02-26 18:03:00,53.1,7.0,29.87,NNW,338,9.2,11.6,16,0.00,,,0.00,WUHU216HW,2013-02-27 01:03:00,
2013-02-26 18:06:00,52.9,6.8,29.87,West,270,4.7,11.4,16,0.00,,,0.00,WUHU216HW,2013-02-27 01:06:00,
2013-02-26 18:07:00,52.9,6.8,29.87,West,270,9.2,11.4,16,0.00,,,0.00,WUHU216HW,2013-02-27 01:07:00,
2013-02-26 18:08:00,52.7,6.8,29.87,WNW,293,8.5,11.4,16,0.00,,,0.00,WUHU216HW,2013-02-27 01:08:00,
2013-02-26 18:09:00,52.6,6.6,29.87,West,270,6.9,10.5,16,0.00,,,0.00,WUHU216HW,2013-02-27 01:09:00,
2013-02-26 18:12:00,52.6,6.6,29.87,SW,225,6.0,10.3,16,0.00,,,0.00,WUHU216HW,2013-02-27 01:12:00,
2013-02-26 18:13:00,52.2,6.3,29.87,West,270,6.3,10.3,16,0.00,,,0.00,WUHU216HW,2013-02-27 01:13:00,
2013-02-26 18:14:00,52.2,6.3,29.87,NW,315,4.7,10.3,16,0.00,,,0.00,WUHU216HW,2013-02-27 01:14:00,
2013-02-26 18:17:00,52.0,6.1,29.87,NW,315,10.1,10.1,16,0.00,,,0.00,WUHU216HW,2013-02-27 01:17:00,
2013-02-26 18:19:00,51.8,6.0,29.87,NW,315,6.9,10.1,16,0.00,,,0.00,WUHU216HW,2013-02-27 01:19:00,
2013-02-26 18:22:00,51.7,5.9,29.87,WNW,293,4.0,10.1,16,0.00,,,0.00,WUHU216HW,2013-02-27 01:22:00,
2013-02-26 18:24:00,51.5,7.2,29.87,West,270,5.1,10.1,17,0.00,,,0.00,WUHU216HW,2013-02-27 01:24:00,
2013-02-26 18:27:00,51.5,7.2,29.88,SW,225,2.5,7.8,17,0.00,,,0.00,WUHU216HW,2013-02-27 01:27:00,
2013-02-26 18:29:00,51.3,7.1,29.88,WSW,248,6.9,7.2,17,0.00,,,0.00,WUHU216HW,2013-02-27 01:29:00,
2013-02-26 18:30:00,51.1,6.9,29.88,West,270,5.4,7.2,17,0.00,,,0.00,WUHU216HW,2013-02-27 01:30:00,
2013-02-26 18:32:00,50.8,6.7,29.88,West,270,4.0,6.9,17,0.00,,,0.00,WUHU216HW,2013-02-27 01:32:00,
2013-02-26 18:33:00,50.8,6.7,29.88,WSW,248,3.8,6.9,17,0.00,,,0.00,WUHU216HW,2013-02-27 01:33:00,
2013-02-26 18:34:00,50.6,6.5,29.88,West,270,5.4,6.9,17,0.00,,,0.00,WUHU216HW,2013-02-27 01:34:00,
2013-02-26 18:35:00,50.6,8.0,29.88,West,270,5.4,6.9,18,0.00,,,0.00,WUHU216HW,2013-02-27 01:35:00,
2013-02-26 18:37:00,50.0,7.6,29.88,WSW,248,4.5,6.9,18,0.00,,,0.00,WUHU216HW,2013-02-27 01:37:00,
2013-02-26 18:38:00,50.0,7.6,29.88,WSW,248,4.7,6.9,18,0.00,,,0.00,WUHU216HW,2013-02-27 01:38:00,
2013-02-26 18:39:00,49.9,7.5,29.88,West,270,6.3,7.6,18,0.00,,,0.00,WUHU216HW,2013-02-27 01:39:00,
2013-02-26 18:40:00,49.7,7.3,29.88,West,270,6.9,7.6,18,0.00,,,0.00,WUHU216HW,2013-02-27 01:40:00,
2013-02-26 18:42:00,49.3,7.0,29.88,WSW,248,5.4,7.6,18,0.00,,,0.00,WUHU216HW,2013-02-27 01:42:00,
2013-02-26 18:43:00,49.3,8.5,29.88,West,270,6.0,7.6,19,0.00,,,0.00,WUHU216HW,2013-02-27 01:43:00,
2013-02-26 18:45:00,49.0,9.6,29.88,West,270,5.4,7.6,20,0.00,,,0.00,WUHU216HW,2013-02-27 01:45:00,
2013-02-26 18:47:00,48.6,9.4,29.88,WSW,248,4.5,7.6,20,0.00,,,0.00,WUHU216HW,2013-02-27 01:47:00,
2013-02-26 18:48:00,48.6,9.4,29.88,West,270,3.8,7.6,20,0.00,,,0.00,WUHU216HW,2013-02-27 01:48:00,
2013-02-26 18:50:00,48.6,9.4,29.88,NNW,338,0.9,6.9,20,0.00,,,0.00,WUHU216HW,2013-02-27 01:50:00,
2013-02-26 18:51:00,48.4,9.2,29.88,NNW,338,0.4,6.3,20,0.00,,,0.00,WUHU216HW,2013-02-27 01:51:00,
2013-02-26 18:53:00,48.4,9.2,29.89,ENE,68,1.1,6.0,20,0.00,,,0.00,WUHU216HW,2013-02-27 01:53:00,
2013-02-26 18:55:00,48.4,9.2,29.89,NNE,23,2.5,5.4,20,0.00,,,0.00,WUHU216HW,2013-02-27 01:55:00,
2013-02-26 18:56:00,48.2,9.0,29.89,North,0,3.6,4.9,20,0.00,,,0.00,WUHU216HW,2013-02-27 01:56:00,
2013-02-26 18:58:00,48.2,7.6,29.89,North,0,4.0,4.7,19,0.00,,,0.00,WUHU216HW,2013-02-27 01:58:00,
2013-02-26 19:01:00,48.2,6.0,29.89,North,0,4.5,5.1,18,0.00,,,0.00,WUHU216HW,2013-02-27 02:01:00,
2013-02-26 19:03:00,48.2,6.0,29.89,NW,315,4.7,5.8,18,0.00,,,0.00,WUHU216HW,2013-02-27 02:03:00,
2013-02-26 19:06:00,48.2,4.6,29.89,NNW,338,5.4,6.9,17,0.00,,,0.00,WUHU216HW,2013-02-27 02:06:00,
2013-02-26 19:08:00,48.2,4.6,29.89,North,0,6.9,6.9,17,0.00,,,0.00,WUHU216HW,2013-02-27 02:08:00,
2013-02-26 19:11:00,48.1,6.0,29.89,North,0,3.8,6.9,18,0.00,,,0.00,WUHU216HW,2013-02-27 02:11:00,
2013-02-26 19:12:00,48.1,6.0,29.89,North,0,6.0,6.9,18,0.00,,,0.00,WUHU216HW,2013-02-27 02:12:00,
2013-02-26 19:13:00,48.1,6.0,29.89,North,0,5.6,6.9,18,0.00,,,0.00,WUHU216HW,2013-02-27 02:13:00,
2013-02-26 19:17:00,47.7,5.6,29.90,NNW,338,9.2,9.6,18,0.00,,,0.00,WUHU216HW,2013-02-27 02:17:00,
2013-02-26 19:18:00,47.5,5.5,29.90,North,0,8.5,9.6,18,0.00,,,0.00,WUHU216HW,2013-02-27 02:18:00,
2013-02-26 19:19:00,47.5,5.5,29.90,NNW,338,6.3,9.6,18,0.00,,,0.00,WUHU216HW,2013-02-27 02:19:00,
2013-02-26 19:23:00,47.5,5.5,29.90,WNW,293,6.3,11.2,18,0.00,,,0.00,WUHU216HW,2013-02-27 02:23:00,
2013-02-26 19:24:00,47.5,5.5,29.90,WNW,293,8.5,11.2,18,0.00,,,0.00,WUHU216HW,2013-02-27 02:24:00,
2013-02-26 19:28:00,47.3,8.3,29.90,NW,315,8.1,11.2,20,0.00,,,0.00,WUHU216HW,2013-02-27 02:28:00,
2013-02-26 19:29:00,47.3,8.3,29.90,WNW,293,8.1,11.2,20,0.00,,,0.00,WUHU216HW,2013-02-27 02:29:00,
2013-02-26 19:34:00,47.0,8.9,29.90,NW,315,5.6,9.2,21,0.00,,,0.00,WUHU216HW,2013-02-27 02:34:00,
2013-02-26 19:35:00,46.8,8.7,29.90,NW,315,4.5,9.2,21,0.00,,,0.00,WUHU216HW,2013-02-27 02:35:00,
2013-02-26 19:39:00,46.8,8.7,29.90,NW,315,8.7,10.3,21,0.00,,,0.00,WUHU216HW,2013-02-27 02:39:00,
2013-02-26 19:40:00,46.8,8.7,29.90,WNW,293,10.7,10.7,21,0.00,,,0.00,WUHU216HW,2013-02-27 02:40:00,
2013-02-26 19:44:00,47.2,9.1,29.90,North,0,6.9,11.0,21,0.00,,,0.00,WUHU216HW,2013-02-27 02:44:00,
2013-02-26 19:45:00,47.2,9.1,29.90,NNW,338,7.6,11.0,21,0.00,,,0.00,WUHU216HW,2013-02-27 02:45:00,
2013-02-26 19:49:00,47.2,9.1,29.91,West,270,5.4,11.0,21,0.00,,,0.00,WUHU216HW,2013-02-27 02:49:00,
2013-02-26 19:50:00,47.2,9.1,29.91,NW,315,6.5,11.0,21,0.00,,,0.00,WUHU216HW,2013-02-27 02:50:00,
2013-02-26 19:54:00,47.3,9.2,29.92,NW,315,8.3,11.4,21,0.00,,,0.00,WUHU216HW,2013-02-27 02:54:00,
2013-02-26 19:55:00,47.3,9.2,29.92,West,270,4.7,11.4,21,0.00,,,0.00,WUHU216HW,2013-02-27 02:55:00,
2013-02-26 19:59:00,47.2,10.0,29.92,West,270,6.7,11.4,22,0.00,,,0.00,WUHU216HW,2013-02-27 02:59:00,
2013-02-26 20:00:00,47.2,10.0,29.92,WNW,293,6.3,10.3,22,0.00,,,0.00,WUHU216HW,2013-02-27 03:00:00,
2013-02-26 20:04:00,47.2,10.0,29.92,West,270,6.9,9.8,22,0.00,,,0.00,WUHU216HW,2013-02-27 03:04:00,
2013-02-26 20:05:00,47.2,10.0,29.92,NW,315,8.1,9.8,22,0.00,,,0.00,WUHU216HW,2013-02-27 03:05:00,
2013-02-26 20:06:00,47.0,9.8,29.92,NW,315,8.5,9.8,22,0.00,,,0.00,WUHU216HW,2013-02-27 03:06:00,
2013-02-26 20:09:00,46.8,8.7,29.92,West,270,6.3,9.8,21,0.00,,,0.00,WUHU216HW,2013-02-27 03:09:00,
2013-02-26 20:10:00,46.8,8.7,29.92,NW,315,7.6,9.8,21,0.00,,,0.00,WUHU216HW,2013-02-27 03:10:00,
2013-02-26 20:11:00,46.8,8.7,29.92,West,270,8.7,8.9,21,0.00,,,0.00,WUHU216HW,2013-02-27 03:11:00,
2013-02-26 20:15:00,46.8,8.7,29.92,WNW,293,7.2,9.2,21,0.00,,,0.00,WUHU216HW,2013-02-27 03:15:00,
2013-02-26 20:16:00,46.8,8.7,29.92,NW,315,5.6,9.2,21,0.00,,,0.00,WUHU216HW,2013-02-27 03:16:00,
2013-02-26 20:20:00,46.8,8.7,29.92,West,270,6.7,10.1,21,0.00,,,0.00,WUHU216HW,2013-02-27 03:20:00,
2013-02-26 20:21:00,46.8,8.7,29.92,West,270,7.6,10.1,21,0.00,,,0.00,WUHU216HW,2013-02-27 03:21:00,
2013-02-26 20:25:00,46.8,8.7,29.92,WSW,248,4.7,10.1,21,0.00,,,0.00,WUHU216HW,2013-02-27 03:25:00,
2013-02-26 20:26:00,46.8,8.7,29.92,WSW,248,4.7,10.1,21,0.00,,,0.00,WUHU216HW,2013-02-27 03:26:00,
2013-02-26 20:30:00,46.3,8.4,29.92,West,270,4.7,7.8,21,0.00,,,0.00,WUHU216HW,2013-02-27 03:30:00,
2013-02-26 20:31:00,46.1,8.2,29.92,West,270,4.0,7.8,21,0.00,,,0.00,WUHU216HW,2013-02-27 03:31:00,
2013-02-26 20:35:00,45.5,7.7,29.92,WNW,293,3.8,6.9,21,0.00,,,0.00,WUHU216HW,2013-02-27 03:35:00,
2013-02-26 20:36:00,45.4,7.6,29.92,WNW,293,3.4,6.9,21,0.00,,,0.00,WUHU216HW,2013-02-27 03:36:00,
2013-02-26 20:40:00,45.0,7.3,29.92,WNW,293,4.3,5.4,21,0.00,,,0.00,WUHU216HW,2013-02-27 03:40:00,
2013-02-26 20:41:00,44.8,7.2,29.93,WNW,293,3.6,4.9,21,0.00,,,0.00,WUHU216HW,2013-02-27 03:41:00,
2013-02-26 20:45:00,44.5,6.8,29.92,WNW,293,2.9,4.7,21,0.00,,,0.00,WUHU216HW,2013-02-27 03:45:00,
2013-02-26 20:46:00,44.5,6.8,29.92,WNW,293,4.5,4.7,21,0.00,,,0.00,WUHU216HW,2013-02-27 03:46:00,
2013-02-26 20:50:00,44.5,6.8,29.93,WNW,293,4.5,6.0,21,0.00,,,0.00,WUHU216HW,2013-02-27 03:50:00,
2013-02-26 20:51:00,44.5,6.8,29.93,WNW,293,4.3,6.0,21,0.00,,,0.00,WUHU216HW,2013-02-27 03:51:00,
2013-02-26 20:52:00,44.5,6.8,29.92,West,270,4.9,6.0,21,0.00,,,0.00,WUHU216HW,2013-02-27 03:52:00,
2013-02-26 20:55:00,44.3,7.6,29.92,West,270,5.4,6.0,22,0.00,,,0.00,WUHU216HW,2013-02-27 03:55:00,
2013-02-26 20:56:00,44.1,7.5,29.92,West,270,5.4,6.3,22,0.00,,,0.00,WUHU216HW,2013-02-27 03:56:00,
2013-02-26 20:57:00,44.1,7.5,29.92,West,270,5.4,6.3,22,0.00,,,0.00,WUHU216HW,2013-02-27 03:57:00,
2013-02-26 21:00:00,43.7,7.1,29.92,West,270,5.8,6.5,22,0.00,,,0.00,WUHU216HW,2013-02-27 04:00:00,
2013-02-26 21:01:00,43.6,7.8,29.92,WNW,293,6.3,6.5,23,0.00,,,0.00,WUHU216HW,2013-02-27 04:01:00,
2013-02-26 21:02:00,43.6,7.8,29.92,WNW,293,6.3,6.5,23,0.00,,,0.00,WUHU216HW,2013-02-27 04:02:00,
2013-02-26 21:05:00,43.4,7.7,29.93,WSW,248,6.7,6.9,23,0.00,,,0.00,WUHU216HW,2013-02-27 04:05:00,
2013-02-26 21:06:00,43.2,7.6,29.93,WNW,293,6.3,7.2,23,0.00,,,0.00,WUHU216HW,2013-02-27 04:06:00,
2013-02-26 21:07:00,43.2,7.6,29.93,West,270,5.6,7.2,23,0.00,,,0.00,WUHU216HW,2013-02-27 04:07:00,
2013-02-26 21:08:00,43.2,7.6,29.93,WSW,248,4.9,7.2,23,0.00,,,0.00,WUHU216HW,2013-02-27 04:08:00,
2013-02-26 21:10:00,43.0,7.4,29.93,West,270,5.4,7.2,23,0.00,,,0.00,WUHU216HW,2013-02-27 04:10:00,
2013-02-26 21:11:00,42.8,8.1,29.93,WSW,248,4.9,7.2,24,0.00,,,0.00,WUHU216HW,2013-02-27 04:11:00,
2013-02-26 21:12:00,42.8,8.1,29.93,WSW,248,4.9,7.2,24,0.00,,,0.00,WUHU216HW,2013-02-27 04:12:00,
2013-02-26 21:13:00,42.8,8.1,29.93,WSW,248,4.0,7.2,24,0.00,,,0.00,WUHU216HW,2013-02-27 04:13:00,
2013-02-26 21:15:00,42.5,7.8,29.93,WSW,248,4.0,7.2,24,0.00,,,0.00,WUHU216HW,2013-02-27 04:15:00,
2013-02-26 21:17:00,42.5,7.8,29.93,WSW,248,3.8,5.6,24,0.00,,,0.00,WUHU216HW,2013-02-27 04:17:00,
2013-02-26 21:18:00,42.5,7.8,29.93,WSW,248,3.4,5.6,24,0.00,,,0.00,WUHU216HW,2013-02-27 04:18:00,
2013-02-26 21:20:00,42.3,7.7,29.93,West,270,2.0,5.4,24,0.00,,,0.00,WUHU216HW,2013-02-27 04:20:00,
2013-02-26 21:22:00,42.5,7.8,29.93,WSW,248,2.2,4.9,24,0.00,,,0.00,WUHU216HW,2013-02-27 04:22:00,
2013-02-26 21:23:00,42.5,7.8,29.93,West,270,2.0,4.9,24,0.00,,,0.00,WUHU216HW,2013-02-27 04:23:00,
2013-02-26 21:26:00,42.5,7.8,29.94,West,270,3.4,4.9,24,0.00,,,0.00,WUHU216HW,2013-02-27 04:26:00,
2013-02-26 21:27:00,42.3,7.7,29.93,West,270,1.8,4.3,24,0.00,,,0.00,WUHU216HW,2013-02-27 04:27:00,
2013-02-26 21:28:00,42.3,7.7,29.93,WNW,293,2.5,4.0,24,0.00,,,0.00,WUHU216HW,2013-02-27 04:28:00,
2013-02-26 21:31:00,42.1,8.5,29.94,NW,315,2.2,3.4,25,0.00,,,0.00,WUHU216HW,2013-02-27 04:31:00,
2013-02-26 21:32:00,42.1,8.5,29.94,WNW,293,4.0,4.0,25,0.00,,,0.00,WUHU216HW,2013-02-27 04:32:00,
2013-02-26 21:34:00,41.9,8.3,29.94,WNW,293,3.6,4.0,25,0.00,,,0.00,WUHU216HW,2013-02-27 04:34:00,
2013-02-26 21:36:00,41.8,8.1,29.94,NW,315,2.5,4.3,25,0.00,,,0.00,WUHU216HW,2013-02-27 04:36:00,
2013-02-26 21:37:00,41.6,8.0,29.94,NW,315,2.9,4.3,25,0.00,,,0.00,WUHU216HW,2013-02-27 04:37:00,
2013-02-26 21:38:00,41.6,8.0,29.94,WNW,293,3.6,4.3,25,0.00,,,0.00,WUHU216HW,2013-02-27 04:38:00,
2013-02-26 21:39:00,41.4,7.8,29.94,NW,315,4.0,4.3,25,0.00,,,0.00,WUHU216HW,2013-02-27 04:39:00,
2013-02-26 21:41:00,41.4,7.8,29.94,WNW,293,3.6,4.3,25,0.00,,,0.00,WUHU216HW,2013-02-27 04:41:00,
2013-02-26 21:43:00,41.4,7.8,29.94,NW,315,4.5,4.5,25,0.00,,,0.00,WUHU216HW,2013-02-27 04:43:00,
2013-02-26 21:45:00,41.2,8.7,29.94,West,270,4.0,4.5,26,0.00,,,0.00,WUHU216HW,2013-02-27 04:45:00,
2013-02-26 21:46:00,41.2,8.7,29.94,WNW,293,4.3,4.5,26,0.00,,,0.00,WUHU216HW,2013-02-27 04:46:00,
2013-02-26 21:48:00,41.2,9.6,29.94,West,270,3.8,4.5,27,0.00,,,0.00,WUHU216HW,2013-02-27 04:48:00,
2013-02-26 21:50:00,41.0,9.4,29.94,West,270,4.0,4.5,27,0.00,,,0.00,WUHU216HW,2013-02-27 04:50:00,
2013-02-26 21:51:00,41.0,9.4,29.94,West,270,3.6,4.5,27,0.00,,,0.00,WUHU216HW,2013-02-27 04:51:00,
2013-02-26 21:53:00,40.9,9.2,29.95,West,270,4.7,4.7,27,0.00,,,0.00,WUHU216HW,2013-02-27 04:53:00,
2013-02-26 21:54:00,40.7,9.0,29.95,West,270,4.0,4.7,27,0.00,,,0.00,WUHU216HW,2013-02-27 04:54:00,
2013-02-26 21:56:00,40.7,9.0,29.94,West,270,3.6,4.7,27,0.00,,,0.00,WUHU216HW,2013-02-27 04:56:00,
2013-02-26 21:58:00,40.5,9.8,29.95,West,270,4.7,4.7,28,0.00,,,0.00,WUHU216HW,2013-02-27 04:58:00,
2013-02-26 21:59:00,40.3,9.6,29.95,West,270,4.7,4.7,28,0.00,,,0.00,WUHU216HW,2013-02-27 04:59:00,
2013-02-26 22:00:00,40.3,9.6,29.95,West,270,3.8,4.7,28,0.00,,,0.00,WUHU216HW,2013-02-27 05:00:00,
2013-02-26 22:05:00,40.0,9.3,29.95,West,270,3.6,4.7,28,0.00,,,0.00,WUHU216HW,2013-02-27 05:05:00,
2013-02-26 22:10:00,39.4,9.7,29.95,West,270,4.3,4.7,29,0.00,,,0.00,WUHU216HW,2013-02-27 05:10:00,
2013-02-26 22:15:00,39.2,9.5,29.95,WNW,293,3.6,5.8,29,0.00,,,0.00,WUHU216HW,2013-02-27 05:15:00,
2013-02-26 22:20:00,38.9,9.2,29.95,WNW,293,4.5,5.8,29,0.00,,,0.00,WUHU216HW,2013-02-27 05:20:00,
2013-02-26 22:25:00,38.9,9.2,29.95,WNW,293,3.4,4.9,29,0.00,,,0.00,WUHU216HW,2013-02-27 05:25:00,
2013-02-26 22:26:00,38.9,9.2,29.95,WNW,293,3.4,4.9,29,0.00,,,0.00,WUHU216HW,2013-02-27 05:26:00,
2013-02-26 22:30:00,38.7,9.1,29.96,WNW,293,3.4,4.3,29,0.00,,,0.00,WUHU216HW,2013-02-27 05:30:00,
2013-02-26 22:31:00,38.5,8.9,29.96,West,270,3.1,4.0,29,0.00,,,0.00,WUHU216HW,2013-02-27 05:31:00,
2013-02-26 22:32:00,38.7,9.1,29.96,WNW,293,3.4,4.5,29,0.00,,,0.00,WUHU216HW,2013-02-27 05:32:00,
2013-02-26 22:35:00,38.7,9.1,29.96,NW,315,5.6,5.8,29,0.00,,,0.00,WUHU216HW,2013-02-27 05:35:00,
2013-02-26 22:36:00,38.7,9.1,29.96,West,270,5.6,5.8,29,0.00,,,0.00,WUHU216HW,2013-02-27 05:36:00,
2013-02-26 22:37:00,38.9,9.2,29.96,WNW,293,5.4,6.7,29,0.00,,,0.00,WUHU216HW,2013-02-27 05:37:00,
2013-02-26 22:40:00,39.4,9.7,29.96,WNW,293,5.1,6.9,29,0.00,,,0.00,WUHU216HW,2013-02-27 05:40:00,
2013-02-26 22:41:00,39.4,9.7,29.96,WNW,293,5.1,6.9,29,0.00,,,0.00,WUHU216HW,2013-02-27 05:41:00,
2013-02-26 22:42:00,39.8,10.0,29.96,WNW,293,5.4,6.9,29,0.00,,,0.00,WUHU216HW,2013-02-27 05:42:00,
2013-02-26 22:45:00,40.3,9.6,29.97,West,270,4.0,7.2,28,0.00,,,0.00,WUHU216HW,2013-02-27 05:45:00,
2013-02-26 22:46:00,40.5,9.8,29.97,WNW,293,4.7,7.2,28,0.00,,,0.00,WUHU216HW,2013-02-27 05:46:00,
2013-02-26 22:48:00,40.7,9.9,29.97,West,270,5.1,7.2,28,0.00,,,0.00,WUHU216HW,2013-02-27 05:48:00,
2013-02-26 22:50:00,40.9,10.1,29.97,WNW,293,6.7,7.2,28,0.00,,,0.00,WUHU216HW,2013-02-27 05:50:00,
2013-02-26 22:51:00,40.9,10.1,29.97,WNW,293,6.7,7.2,28,0.00,,,0.00,WUHU216HW,2013-02-27 05:51:00,
2013-02-26 22:53:00,41.0,10.3,29.97,WNW,293,4.7,7.4,28,0.00,,,0.00,WUHU216HW,2013-02-27 05:53:00,
2013-02-26 22:55:00,41.2,10.5,29.97,West,270,6.9,7.4,28,0.00,,,0.00,WUHU216HW,2013-02-27 05:55:00,
2013-02-26 22:56:00,41.2,10.5,29.97,WNW,293,6.7,7.4,28,0.00,,,0.00,WUHU216HW,2013-02-27 05:56:00,
2013-02-26 22:58:00,41.2,10.5,29.96,WNW,293,5.6,7.4,28,0.00,,,0.00,WUHU216HW,2013-02-27 05:58:00,
2013-02-26 23:01:00,41.2,10.5,29.96,West,270,5.4,7.4,28,0.00,,,0.00,WUHU216HW,2013-02-27 06:01:00,
2013-02-26 23:03:00,41.2,10.5,29.96,West,270,4.0,7.2,28,0.00,,,0.00,WUHU216HW,2013-02-27 06:03:00,
2013-02-26 23:06:00,41.0,10.3,29.95,WNW,293,4.3,6.7,28,0.00,,,0.00,WUHU216HW,2013-02-27 06:06:00,
2013-02-26 23:08:00,40.9,10.1,29.95,WNW,293,3.4,5.4,28,0.00,,,0.00,WUHU216HW,2013-02-27 06:08:00,
2013-02-26 23:11:00,40.7,9.9,29.95,NW,315,0.9,5.4,28,0.00,,,0.00,WUHU216HW,2013-02-27 06:11:00,
2013-02-26 23:13:00,40.7,9.9,29.96,WNW,293,1.1,4.5,28,0.00,,,0.00,WUHU216HW,2013-02-27 06:13:00,
2013-02-26 23:16:00,40.5,9.8,29.96,West,270,2.5,3.4,28,0.00,,,0.00,WUHU216HW,2013-02-27 06:16:00,
2013-02-26 23:18:00,40.3,9.6,29.96,WSW,248,2.5,2.7,28,0.00,,,0.00,WUHU216HW,2013-02-27 06:18:00,
2013-02-26 23:21:00,40.1,9.5,29.96,West,270,3.8,4.3,28,0.00,,,0.00,WUHU216HW,2013-02-27 06:21:00,
2013-02-26 23:23:00,39.8,10.0,29.96,West,270,2.7,4.3,29,0.00,,,0.00,WUHU216HW,2013-02-27 06:23:00,
2013-02-26 23:26:00,39.2,9.5,29.97,West,270,5.6,5.6,29,0.00,,,0.00,WUHU216HW,2013-02-27 06:26:00,
2013-02-26 23:27:00,39.2,9.5,29.97,West,270,5.6,5.6,29,0.00,,,0.00,WUHU216HW,2013-02-27 06:27:00,
2013-02-26 23:29:00,38.9,9.2,29.97,West,270,4.5,5.6,29,0.00,,,0.00,WUHU216HW,2013-02-27 06:29:00,
2013-02-26 23:31:00,38.7,9.1,29.97,West,270,4.7,5.6,29,0.00,,,0.00,WUHU216HW,2013-02-27 06:31:00,
2013-02-26 23:32:00,38.7,9.1,29.97,West,270,4.5,5.6,29,0.00,,,0.00,WUHU216HW,2013-02-27 06:32:00,
2013-02-26 23:34:00,38.5,8.9,29.97,West,270,3.4,6.7,29,0.00,,,0.00,WUHU216HW,2013-02-27 06:34:00,
2013-02-26 23:36:00,38.3,9.6,29.97,West,270,6.0,6.7,30,0.00,,,0.00,WUHU216HW,2013-02-27 06:36:00,
2013-02-26 23:37:00,38.3,9.6,29.97,West,270,5.8,6.7,30,0.00,,,0.00,WUHU216HW,2013-02-27 06:37:00,
2013-02-26 23:39:00,38.2,9.5,29.97,West,270,5.4,6.7,30,0.00,,,0.00,WUHU216HW,2013-02-27 06:39:00,
2013-02-26 23:41:00,38.2,9.5,29.97,West,270,5.4,6.7,30,0.00,,,0.00,WUHU216HW,2013-02-27 06:41:00,
2013-02-26 23:42:00,38.2,9.5,29.97,West,270,4.9,6.7,30,0.00,,,0.00,WUHU216HW,2013-02-27 06:42:00,
2013-02-26 23:44:00,38.0,9.3,29.97,West,270,4.0,6.0,30,0.00,,,0.00,WUHU216HW,2013-02-27 06:44:00,
2013-02-26 23:46:00,38.0,10.0,29.97,West,270,5.1,6.3,31,0.00,,,0.00,WUHU216HW,2013-02-27 06:46:00,
2013-02-26 23:47:00,38.0,9.3,29.97,West,270,5.1,6.3,30,0.00,,,0.00,WUHU216HW,2013-02-27 06:47:00,
2013-02-26 23:49:00,37.8,9.2,29.97,West,270,4.7,6.3,30,0.00,,,0.00,WUHU216HW,2013-02-27 06:49:00,
2013-02-26 23:52:00,38.0,9.3,29.97,West,270,2.9,6.3,30,0.00,,,0.00,WUHU216HW,2013-02-27 06:52:00,
2013-02-26 23:54:00,38.0,9.3,29.97,West,270,4.7,6.3,30,0.00,,,0.00,WUHU216HW,2013-02-27 06:54:00,
2013-02-26 23:57:00,37.8,9.8,29.97,West,270,3.8,5.1,31,0.00,,,0.00,WUHU216HW,2013-02-27 06:57:00,
2013-02-26 23:58:00,37.8,9.2,29.97,West,270,3.4,4.9,30,0.00,,,0.00,WUHU216HW,2013-02-27 06:58:00,
2013-02-26 23:59:00,37.8,9.2,29.97,West,270,3.4,4.9,30,0.00,,,0.00,WUHU216HW,2013-02-27 06:59:00,